Wetterdaten: Mittwoch, 06.02.2013
Datum Zeit Temp. Aussen +5cm Feuchte Auss BlattFeu 1 Luftdruck Regen Sonnenschein UV Solar Windben
06.02.2013 00:00 1,3 C 0,1 C 92 % 0 lf 996,2 hPa 0,0 l/m 0 min 0,0 UV-I 0 W/m 7,7 km/h (2 Bft)
06.02.2013 00:02 1,3 C 0,1 C 92 % 0 lf 996,2 hPa 0,0 l/m 0 min 0,0 UV-I 0 W/m 12,9 km/h (3 Bft)
06.02.2013 00:06 1,3 C 0,1 C 92 % 0 lf 996,1 hPa 0,0 l/m 0 min 0,0 UV-I 0 W/m 15,4 km/h (3 Bft)
06.02.2013 00:08 1,3 C 0,1 C 92 % 0 lf 996,1 hPa 0,0 l/m 0 min 0,0 UV-I 0 W/m 5,1 km/h (1 Bft)
06.02.2013 00:10 1,3 C 0,1 C 92 % 0 lf 996,1 hPa 0,0 l/m 0 min 0,0 UV-I 0 W/m 0,0 km/h (0 Bft)
06.02.2013 00:12 1,3 C 0,1 C 92 % 0 lf 996,1 hPa 0,0 l/m 0 min 0,0 UV-I 0 W/m 2,6 km/h (1 Bft)
06.02.2013 00:14 1,3 C 0,1 C 92 % 0 lf 996,1 hPa 0,0 l/m 0 min 0,0 UV-I 0 W/m 10,3 km/h (2 Bft)
06.02.2013 00:16 1,3 C 0,1 C 92 % 0 lf 996,1 hPa 0,0 l/m 0 min 0,0 UV-I 0 W/m 7,7 km/h (2 Bft)
06.02.2013 00:18 1,3 C 0,1 C 92 % 0 lf 996,0 hPa 0,0 l/m 0 min 0,0 UV-I 0 W/m 5,1 km/h (1 Bft)
06.02.2013 00:20 1,3 C 0,1 C 92 % 0 lf 995,9 hPa 0,0 l/m 0 min 0,0 UV-I 0 W/m 12,9 km/h (3 Bft)
06.02.2013 00:22 1,3 C 0,1 C 92 % 0 lf 995,9 hPa 0,0 l/m 0 min 0,0 UV-I 0 W/m 10,3 km/h (2 Bft)
06.02.2013 00:24 1,3 C 0,1 C 92 % 0 lf 995,8 hPa 0,0 l/m 0 min 0,0 UV-I 0 W/m 7,7 km/h (2 Bft)
06.02.2013 00:26 1,3 C 0,1 C 92 % 0 lf 995,7 hPa 0,0 l/m 0 min 0,0 UV-I 0 W/m 10,3 km/h (2 Bft)
06.02.2013 00:28 1,3 C 0,1 C 92 % 0 lf 995,9 hPa 0,0 l/m 0 min 0,0 UV-I 0 W/m 2,6 km/h (1 Bft)
06.02.2013 00:30 1,3 C 0,1 C 91 % 0 lf 995,8 hPa 0,0 l/m 0 min 0,0 UV-I 0 W/m 2,6 km/h (1 Bft)
06.02.2013 00:32 1,3 C 0,1 C 91 % 0 lf 995,7 hPa 0,0 l/m 0 min 0,0 UV-I 0 W/m 10,3 km/h (2 Bft)
06.02.2013 00:34 1,3 C 0,1 C 91 % 0 lf 995,6 hPa 0,0 l/m 0 min 0,0 UV-I 0 W/m 7,7 km/h (2 Bft)
06.02.2013 00:36 1,3 C 0,1 C 91 % 0 lf 995,6 hPa 0,0 l/m 0 min 0,0 UV-I 0 W/m 15,4 km/h (3 Bft)
06.02.2013 00:38 1,4 C 0,7 C 91 % 0 lf 995,6 hPa 0,0 l/m 0 min 0,0 UV-I 0 W/m 12,9 km/h (3 Bft)
06.02.2013 00:40 1,4 C 0,7 C 91 % 0 lf 995,6 hPa 0,0 l/m 0 min 0,0 UV-I 0 W/m 7,7 km/h (2 Bft)
06.02.2013 00:42 1,4 C 0,7 C 91 % 0 lf 995,5 hPa 0,0 l/m 0 min 0,0 UV-I 0 W/m 15,4 km/h (3 Bft)
06.02.2013 00:44 1,4 C 0,1 C 91 % 0 lf 995,5 hPa 0,0 l/m 0 min 0,0 UV-I 0 W/m 15,4 km/h (3 Bft)
06.02.2013 00:46 1,4 C 0,1 C 91 % 0 lf 995,5 hPa 0,0 l/m 0 min 0,0 UV-I 0 W/m 18,0 km/h (3 Bft)
06.02.2013 00:48 1,4 C 0,1 C 91 % 0 lf 995,4 hPa 0,0 l/m 0 min 0,0 UV-I 0 W/m 10,3 km/h (2 Bft)
06.02.2013 00:50 1,4 C 0,1 C 91 % 0 lf 995,4 hPa 0,0 l/m 0 min 0,0 UV-I 0 W/m 15,4 km/h (3 Bft)
06.02.2013 00:52 1,4 C 0,1 C 91 % 0 lf 995,4 hPa 0,0 l/m 0 min 0,0 UV-I 0 W/m 7,7 km/h (2 Bft)
06.02.2013 00:54 1,4 C 0,1 C 91 % 0 lf 995,4 hPa 0,0 l/m 0 min 0,0 UV-I 0 W/m 7,7 km/h (2 Bft)
06.02.2013 00:56 1,4 C 0,1 C 91 % 0 lf 995,3 hPa 0,0 l/m 0 min 0,0 UV-I 0 W/m 7,7 km/h (2 Bft)
06.02.2013 00:58 1,4 C 0,1 C 91 % 0 lf 995,3 hPa 0,0 l/m 0 min 0,0 UV-I 0 W/m 7,7 km/h (2 Bft)
06.02.2013 01:00 1,4 C 0,1 C 91 % 0 lf 995,3 hPa 0,0 l/m 0 min 0,0 UV-I 0 W/m 2,6 km/h (1 Bft)
06.02.2013 01:02 1,4 C 0,1 C 91 % 0 lf 995,3 hPa 0,0 l/m 0 min 0,0 UV-I 0 W/m 7,7 km/h (2 Bft)
06.02.2013 01:06 1,4 C 0,1 C 91 % 0 lf 995,3 hPa 0,0 l/m 0 min 0,0 UV-I 0 W/m 7,7 km/h (2 Bft)
06.02.2013 01:08 1,4 C 0,1 C 91 % 0 lf 995,2 hPa 0,0 l/m 0 min 0,0 UV-I 0 W/m 7,7 km/h (2 Bft)
06.02.2013 01:10 1,4 C 0,1 C 91 % 0 lf 995,1 hPa 0,0 l/m 0 min 0,0 UV-I 0 W/m 7,7 km/h (2 Bft)
06.02.2013 01:12 1,4 C 0,1 C 91 % 0 lf 995,1 hPa 0,0 l/m 0 min 0,0 UV-I 0 W/m 10,3 km/h (2 Bft)
06.02.2013 01:14 1,4 C 0,1 C 91 % 0 lf 995,1 hPa 0,0 l/m 0 min 0,0 UV-I 0 W/m 7,7 km/h (2 Bft)
06.02.2013 01:16 1,3 C 0,1 C 91 % 0 lf 995,1 hPa 0,0 l/m 0 min 0,0 UV-I 0 W/m 5,1 km/h (1 Bft)
06.02.2013 01:18 1,3 C 0,1 C 91 % 0 lf 995,1 hPa 0,0 l/m 0 min 0,0 UV-I 0 W/m 7,7 km/h (2 Bft)
06.02.2013 01:20 1,3 C 0,1 C 91 % 0 lf 995,1 hPa 0,0 l/m 0 min 0,0 UV-I 0 W/m 12,9 km/h (3 Bft)
06.02.2013 01:22 1,3 C 0,1 C 91 % 0 lf 995,1 hPa 0,0 l/m 0 min 0,0 UV-I 0 W/m 7,7 km/h (2 Bft)
06.02.2013 01:24 1,3 C 0,1 C 91 % 0 lf 995,0 hPa 0,0 l/m 0 min 0,0 UV-I 0 W/m 5,1 km/h (1 Bft)
06.02.2013 01:26 1,3 C 0,1 C 91 % 0 lf 994,9 hPa 0,0 l/m 0 min 0,0 UV-I 0 W/m 5,1 km/h (1 Bft)
06.02.2013 01:28 1,3 C 0,7 C 91 % 0 lf 994,9 hPa 0,0 l/m 0 min 0,0 UV-I 0 W/m 5,1 km/h (1 Bft)
06.02.2013 01:30 1,3 C 0,7 C 91 % 0 lf 994,9 hPa 0,0 l/m 0 min 0,0 UV-I 0 W/m 7,7 km/h (2 Bft)
06.02.2013 01:32 1,3 C 0,7 C 91 % 0 lf 994,8 hPa 0,0 l/m 0 min 0,0 UV-I 0 W/m 10,3 km/h (2 Bft)
06.02.2013 01:34 1,3 C 0,7 C 91 % 0 lf 994,8 hPa 0,0 l/m 0 min 0,0 UV-I 0 W/m 10,3 km/h (2 Bft)
06.02.2013 01:36 1,4 C 0,7 C 91 % 0 lf 994,8 hPa 0,0 l/m 0 min 0,0 UV-I 0 W/m 7,7 km/h (2 Bft)
06.02.2013 01:38 1,3 C 0,7 C 91 % 0 lf 994,8 hPa 0,0 l/m 0 min 0,0 UV-I 0 W/m 10,3 km/h (2 Bft)
06.02.2013 01:40 1,4 C 0,7 C 91 % 0 lf 994,8 hPa 0,0 l/m 0 min 0,0 UV-I 0 W/m 15,4 km/h (3 Bft)
06.02.2013 01:42 1,4 C 0,7 C 91 % 0 lf 994,8 hPa 0,0 l/m 0 min 0,0 UV-I 0 W/m 0,0 km/h (0 Bft)
06.02.2013 01:44 1,4 C 0,7 C 91 % 1 lf 994,8 hPa 0,0 l/m 0 min 0,0 UV-I 0 W/m 12,9 km/h (3 Bft)
06.02.2013 01:46 1,4 C 0,7 C 91 % 0 lf 994,7 hPa 0,0 l/m 0 min 0,0 UV-I 0 W/m 5,1 km/h (1 Bft)
06.02.2013 01:48 1,4 C 0,7 C 91 % 0 lf 994,8 hPa 0,0 l/m 0 min 0,0 UV-I 0 W/m 5,1 km/h (1 Bft)
06.02.2013 01:50 1,4 C 0,7 C 91 % 0 lf 994,8 hPa 0,0 l/m 0 min 0,0 UV-I 0 W/m 7,7 km/h (2 Bft)
06.02.2013 01:52 1,4 C 0,7 C 91 % 1 lf 994,8 hPa 0,0 l/m 0 min 0,0 UV-I 0 W/m 7,7 km/h (2 Bft)
06.02.2013 01:54 1,4 C 0,7 C 91 % 5 lf 994,8 hPa 0,0 l/m 0 min 0,0 UV-I 0 W/m 12,9 km/h (3 Bft)
06.02.2013 01:56 1,5 C 0,7 C 91 % 15 lf 994,8 hPa 0,0 l/m 0 min 0,0 UV-I 0 W/m 12,9 km/h (3 Bft)
06.02.2013 01:58 1,5 C 0,7 C 91 % 15 lf 994,7 hPa 0,0 l/m 0 min 0,0 UV-I 0 W/m 10,3 km/h (2 Bft)
06.02.2013 02:00 1,6 C 0,7 C 91 % 15 lf 994,7 hPa 0,0 l/m 0 min 0,0 UV-I 0 W/m 18,0 km/h (3 Bft)
06.02.2013 02:02 1,6 C 0,7 C 91 % 15 lf 994,6 hPa 0,0 l/m 0 min 0,0 UV-I 0 W/m 10,3 km/h (2 Bft)
06.02.2013 02:06 1,6 C 0,1 C 91 % 15 lf 994,7 hPa 0,0 l/m 0 min 0,0 UV-I 0 W/m 10,3 km/h (2 Bft)
06.02.2013 02:08 1,6 C 0,1 C 91 % 15 lf 994,7 hPa 0,0 l/m 0 min 0,0 UV-I 0 W/m 2,6 km/h (1 Bft)
06.02.2013 02:10 1,6 C -0,4 C 91 % 15 lf 994,7 hPa 0,0 l/m 0 min 0,0 UV-I 0 W/m 2,6 km/h (1 Bft)
06.02.2013 02:12 1,6 C -0,4 C 91 % 15 lf 994,6 hPa 0,0 l/m 0 min 0,0 UV-I 0 W/m 23,2 km/h (4 Bft)
06.02.2013 02:14 1,6 C -0,4 C 91 % 15 lf 994,6 hPa 0,0 l/m 0 min 0,0 UV-I 0 W/m 7,7 km/h (2 Bft)
06.02.2013 02:16 1,6 C -0,4 C 91 % 15 lf 994,6 hPa 0,0 l/m 0 min 0,0 UV-I 0 W/m 5,1 km/h (1 Bft)
06.02.2013 02:18 1,5 C -0,4 C 91 % 15 lf 994,5 hPa 0,0 l/m 0 min 0,0 UV-I 0 W/m 10,3 km/h (2 Bft)
06.02.2013 02:20 1,4 C -1,0 C 92 % 15 lf 994,5 hPa 0,0 l/m 0 min 0,0 UV-I 0 W/m 10,3 km/h (2 Bft)
06.02.2013 02:22 1,4 C -1,0 C 92 % 15 lf 994,5 hPa 0,0 l/m 0 min 0,0 UV-I 0 W/m 7,7 km/h (2 Bft)
06.02.2013 02:24 1,3 C -1,0 C 92 % 15 lf 994,5 hPa 0,0 l/m 0 min 0,0 UV-I 0 W/m 7,7 km/h (2 Bft)
06.02.2013 02:26 1,3 C -1,0 C 92 % 15 lf 994,5 hPa 0,0 l/m 0 min 0,0 UV-I 0 W/m 7,7 km/h (2 Bft)
06.02.2013 02:28 1,3 C -1,0 C 92 % 15 lf 994,4 hPa 0,0 l/m 0 min 0,0 UV-I 0 W/m 12,9 km/h (3 Bft)
06.02.2013 02:30 1,3 C -1,0 C 92 % 15 lf 994,4 hPa 0,0 l/m 0 min 0,0 UV-I 0 W/m 7,7 km/h (2 Bft)
06.02.2013 02:32 1,3 C -1,0 C 93 % 15 lf 994,3 hPa 0,0 l/m 0 min 0,0 UV-I 0 W/m 7,7 km/h (2 Bft)
06.02.2013 02:34 1,2 C -1,0 C 93 % 15 lf 994,4 hPa 0,0 l/m 0 min 0,0 UV-I 0 W/m 5,1 km/h (1 Bft)
06.02.2013 02:36 1,2 C -1,0 C 93 % 15 lf 994,3 hPa 0,0 l/m 0 min 0,0 UV-I 0 W/m 10,3 km/h (2 Bft)
06.02.2013 02:38 1,1 C -1,0 C 93 % 15 lf 994,3 hPa 0,0 l/m 0 min 0,0 UV-I 0 W/m 10,3 km/h (2 Bft)
06.02.2013 02:40 1,1 C -1,0 C 93 % 15 lf 994,2 hPa 0,0 l/m 0 min 0,0 UV-I 0 W/m 10,3 km/h (2 Bft)
06.02.2013 02:42 1,0 C -1,0 C 93 % 15 lf 994,3 hPa 0,0 l/m 0 min 0,0 UV-I 0 W/m 10,3 km/h (2 Bft)
06.02.2013 02:44 1,0 C -1,0 C 93 % 15 lf 994,3 hPa 0,0 l/m 0 min 0,0 UV-I 0 W/m 0,0 km/h (0 Bft)
06.02.2013 02:46 0,9 C -1,0 C 93 % 15 lf 994,2 hPa 0,0 l/m 0 min 0,0 UV-I 0 W/m 7,7 km/h (2 Bft)
06.02.2013 02:48 0,9 C -1,0 C 94 % 15 lf 994,1 hPa 0,0 l/m 0 min 0,0 UV-I 0 W/m 12,9 km/h (3 Bft)
06.02.2013 02:50 0,8 C -1,0 C 94 % 15 lf 994,1 hPa 0,0 l/m 0 min 0,0 UV-I 0 W/m 10,3 km/h (2 Bft)
06.02.2013 02:52 0,8 C -1,0 C 94 % 15 lf 994,1 hPa 0,0 l/m 0 min 0,0 UV-I 0 W/m 10,3 km/h (2 Bft)
06.02.2013 02:54 0,8 C -1,0 C 94 % 15 lf 994,0 hPa 0,0 l/m 0 min 0,0 UV-I 0 W/m 10,3 km/h (2 Bft)
06.02.2013 02:56 0,7 C -1,0 C 94 % 15 lf 994,0 hPa 0,0 l/m 0 min 0,0 UV-I 0 W/m 7,7 km/h (2 Bft)
06.02.2013 02:58 0,7 C -1,0 C 94 % 15 lf 993,9 hPa 0,0 l/m 0 min 0,0 UV-I 0 W/m 7,7 km/h (2 Bft)
06.02.2013 03:00 0,7 C -1,0 C 95 % 15 lf 993,9 hPa 0,0 l/m 0 min 0,0 UV-I 0 W/m 7,7 km/h (2 Bft)
06.02.2013 03:02 0,7 C -1,0 C 95 % 15 lf 993,8 hPa 0,0 l/m 0 min 0,0 UV-I 0 W/m 5,1 km/h (1 Bft)
06.02.2013 03:06 0,6 C -1,0 C 95 % 15 lf 993,7 hPa 0,0 l/m 0 min 0,0 UV-I 0 W/m 12,9 km/h (3 Bft)
06.02.2013 03:08 0,6 C -1,0 C 95 % 15 lf 993,6 hPa 0,0 l/m 0 min 0,0 UV-I 0 W/m 7,7 km/h (2 Bft)
06.02.2013 03:10 0,6 C -1,0 C 95 % 15 lf 993,6 hPa 0,0 l/m 0 min 0,0 UV-I 0 W/m 12,9 km/h (3 Bft)
06.02.2013 03:12 0,5 C -1,0 C 95 % 15 lf 993,6 hPa 0,0 l/m 0 min 0,0 UV-I 0 W/m 5,1 km/h (1 Bft)
06.02.2013 03:14 0,5 C -1,0 C 95 % 15 lf 993,4 hPa 0,0 l/m 0 min 0,0 UV-I 0 W/m 10,3 km/h (2 Bft)
06.02.2013 03:16 0,5 C -1,0 C 95 % 15 lf 993,5 hPa 0,0 l/m 0 min 0,0 UV-I 0 W/m 15,4 km/h (3 Bft)
06.02.2013 03:18 0,5 C -1,0 C 96 % 15 lf 993,4 hPa 0,0 l/m 0 min 0,0 UV-I 0 W/m 7,7 km/h (2 Bft)
06.02.2013 03:20 0,4 C -1,0 C 96 % 15 lf 993,4 hPa 0,0 l/m 0 min 0,0 UV-I 0 W/m 12,9 km/h (3 Bft)
06.02.2013 03:22 0,4 C -1,0 C 96 % 15 lf 993,3 hPa 0,0 l/m 0 min 0,0 UV-I 0 W/m 10,3 km/h (2 Bft)
06.02.2013 03:24 0,4 C -1,0 C 96 % 15 lf 993,2 hPa 0,0 l/m 0 min 0,0 UV-I 0 W/m 10,3 km/h (2 Bft)
06.02.2013 03:26 0,4 C -1,0 C 96 % 15 lf 993,2 hPa 0,0 l/m 0 min 0,0 UV-I 0 W/m 12,9 km/h (3 Bft)
06.02.2013 03:28 0,4 C -1,0 C 96 % 15 lf 993,2 hPa 0,0 l/m 0 min 0,0 UV-I 0 W/m 10,3 km/h (2 Bft)
06.02.2013 03:30 0,4 C -1,0 C 96 % 15 lf 993,2 hPa 0,0 l/m 0 min 0,0 UV-I 0 W/m 7,7 km/h (2 Bft)
06.02.2013 03:32 0,4 C -1,0 C 96 % 15 lf 993,1 hPa 0,0 l/m 0 min 0,0 UV-I 0 W/m 10,3 km/h (2 Bft)
06.02.2013 03:34 0,4 C -1,0 C 96 % 15 lf 993,1 hPa 0,0 l/m 0 min 0,0 UV-I 0 W/m 12,9 km/h (3 Bft)
06.02.2013 03:36 0,4 C -1,0 C 96 % 15 lf 993,1 hPa 0,0 l/m 0 min 0,0 UV-I 0 W/m 12,9 km/h (3 Bft)
06.02.2013 03:38 0,4 C -1,0 C 96 % 15 lf 993,1 hPa 0,0 l/m 0 min 0,0 UV-I 0 W/m 12,9 km/h (3 Bft)
06.02.2013 03:40 0,3 C -1,0 C 96 % 15 lf 993,0 hPa 0,0 l/m 0 min 0,0 UV-I 0 W/m 18,0 km/h (3 Bft)
06.02.2013 03:42 0,3 C -1,0 C 97 % 15 lf 993,0 hPa 0,0 l/m 0 min 0,0 UV-I 0 W/m 15,4 km/h (3 Bft)
06.02.2013 03:44 0,3 C -1,0 C 97 % 15 lf 992,9 hPa 0,0 l/m 0 min 0,0 UV-I 0 W/m 7,7 km/h (2 Bft)
06.02.2013 03:46 0,3 C -1,0 C 97 % 15 lf 992,9 hPa 0,0 l/m 0 min 0,0 UV-I 0 W/m 15,4 km/h (3 Bft)
06.02.2013 03:48 0,3 C -1,0 C 97 % 15 lf 992,9 hPa 0,0 l/m 0 min 0,0 UV-I 0 W/m 12,9 km/h (3 Bft)
06.02.2013 03:50 0,3 C -1,0 C 97 % 15 lf 992,9 hPa 0,0 l/m 0 min 0,0 UV-I 0 W/m 15,4 km/h (3 Bft)
06.02.2013 03:52 0,3 C -1,0 C 97 % 15 lf 992,8 hPa 0,0 l/m 0 min 0,0 UV-I 0 W/m 12,9 km/h (3 Bft)
06.02.2013 03:54 0,3 C -1,0 C 97 % 15 lf 992,8 hPa 0,0 l/m 0 min 0,0 UV-I 0 W/m 18,0 km/h (3 Bft)
06.02.2013 03:56 0,3 C -1,0 C 97 % 15 lf 992,8 hPa 0,0 l/m 0 min 0,0 UV-I 0 W/m 15,4 km/h (3 Bft)
06.02.2013 03:58 0,3 C -1,0 C 97 % 15 lf 992,8 hPa 0,0 l/m 0 min 0,0 UV-I 0 W/m 12,9 km/h (3 Bft)
06.02.2013 04:00 0,3 C -1,0 C 97 % 15 lf 992,7 hPa 0,0 l/m 0 min 0,0 UV-I 0 W/m 15,4 km/h (3 Bft)
06.02.2013 04:02 0,3 C -1,0 C 97 % 15 lf 992,7 hPa 0,0 l/m 0 min 0,0 UV-I 0 W/m 18,0 km/h (3 Bft)
06.02.2013 04:06 0,3 C -1,0 C 97 % 15 lf 992,7 hPa 0,0 l/m 0 min 0,0 UV-I 0 W/m 12,9 km/h (3 Bft)
06.02.2013 04:08 0,3 C -1,0 C 97 % 15 lf 992,5 hPa 0,0 l/m 0 min 0,0 UV-I 0 W/m 20,6 km/h (4 Bft)
06.02.2013 04:10 0,3 C -1,0 C 97 % 15 lf 992,5 hPa 0,0 l/m 0 min 0,0 UV-I 0 W/m 12,9 km/h (3 Bft)
06.02.2013 04:12 0,3 C -1,0 C 97 % 15 lf 992,7 hPa 0,0 l/m 0 min 0,0 UV-I 0 W/m 10,3 km/h (2 Bft)
06.02.2013 04:14 0,2 C -1,0 C 98 % 15 lf 992,6 hPa 0,0 l/m 0 min 0,0 UV-I 0 W/m 18,0 km/h (3 Bft)
06.02.2013 04:16 0,3 C -1,0 C 98 % 15 lf 992,5 hPa 0,0 l/m 0 min 0,0 UV-I 0 W/m 12,9 km/h (3 Bft)
06.02.2013 04:18 0,3 C -1,0 C 98 % 15 lf 992,4 hPa 0,0 l/m 0 min 0,0 UV-I 0 W/m 12,9 km/h (3 Bft)
06.02.2013 04:20 0,3 C -1,0 C 98 % 15 lf 992,4 hPa 0,0 l/m 0 min 0,0 UV-I 0 W/m 18,0 km/h (3 Bft)
06.02.2013 04:22 0,3 C -1,0 C 97 % 15 lf 992,3 hPa 0,0 l/m 0 min 0,0 UV-I 0 W/m 10,3 km/h (2 Bft)
06.02.2013 04:24 0,3 C -1,0 C 98 % 15 lf 992,3 hPa 0,0 l/m 0 min 0,0 UV-I 0 W/m 12,9 km/h (3 Bft)
06.02.2013 04:26 0,2 C -1,0 C 98 % 15 lf 992,3 hPa 0,0 l/m 0 min 0,0 UV-I 0 W/m 23,2 km/h (4 Bft)
06.02.2013 04:28 0,2 C -1,0 C 98 % 15 lf 992,2 hPa 0,0 l/m 0 min 0,0 UV-I 0 W/m 15,4 km/h (3 Bft)
06.02.2013 04:30 0,2 C -1,0 C 98 % 15 lf 992,2 hPa 0,0 l/m 0 min 0,0 UV-I 0 W/m 12,9 km/h (3 Bft)
06.02.2013 04:32 0,2 C -1,0 C 98 % 15 lf 992,2 hPa 0,0 l/m 0 min 0,0 UV-I 0 W/m 20,6 km/h (4 Bft)
06.02.2013 04:34 0,2 C -1,0 C 98 % 15 lf 992,2 hPa 0,0 l/m 0 min 0,0 UV-I 0 W/m 18,0 km/h (3 Bft)
06.02.2013 04:36 0,2 C -1,0 C 98 % 15 lf 992,1 hPa 0,0 l/m 0 min 0,0 UV-I 0 W/m 12,9 km/h (3 Bft)
06.02.2013 04:38 0,2 C -1,0 C 98 % 15 lf 992,1 hPa 0,0 l/m 0 min 0,0 UV-I 0 W/m 18,0 km/h (3 Bft)
06.02.2013 04:40 0,2 C -1,0 C 98 % 15 lf 992,1 hPa 0,0 l/m 0 min 0,0 UV-I 0 W/m 10,3 km/h (2 Bft)
06.02.2013 04:42 0,2 C -1,0 C 98 % 15 lf 992,1 hPa 0,0 l/m 0 min 0,0 UV-I 0 W/m 10,3 km/h (2 Bft)
06.02.2013 04:44 0,2 C -1,0 C 98 % 15 lf 992,1 hPa 0,0 l/m 0 min 0,0 UV-I 0 W/m 15,4 km/h (3 Bft)
06.02.2013 04:46 0,2 C -1,0 C 98 % 15 lf 992,0 hPa 0,0 l/m 0 min 0,0 UV-I 0 W/m 18,0 km/h (3 Bft)
06.02.2013 04:48 0,2 C -1,0 C 98 % 15 lf 992,0 hPa 0,0 l/m 0 min 0,0 UV-I 0 W/m 12,9 km/h (3 Bft)
06.02.2013 04:50 0,2 C -1,0 C 98 % 15 lf 992,0 hPa 0,0 l/m 0 min 0,0 UV-I 0 W/m 12,9 km/h (3 Bft)
06.02.2013 04:52 0,2 C -1,0 C 98 % 15 lf 991,9 hPa 0,0 l/m 0 min 0,0 UV-I 0 W/m 10,3 km/h (2 Bft)
06.02.2013 04:54 0,2 C -1,0 C 98 % 15 lf 991,8 hPa 0,0 l/m 0 min 0,0 UV-I 0 W/m 12,9 km/h (3 Bft)
06.02.2013 04:56 0,2 C -1,0 C 98 % 15 lf 991,8 hPa 0,0 l/m 0 min 0,0 UV-I 0 W/m 18,0 km/h (3 Bft)
06.02.2013 04:58 0,2 C -1,0 C 98 % 15 lf 991,9 hPa 0,0 l/m 0 min 0,0 UV-I 0 W/m 10,3 km/h (2 Bft)
06.02.2013 05:00 0,2 C -1,0 C 98 % 15 lf 991,9 hPa 0,0 l/m 0 min 0,0 UV-I 0 W/m 2,6 km/h (1 Bft)
06.02.2013 05:02 0,2 C -1,0 C 98 % 15 lf 992,0 hPa 0,0 l/m 0 min 0,0 UV-I 0 W/m 7,7 km/h (2 Bft)
06.02.2013 05:06 0,2 C -1,0 C 98 % 15 lf 992,0 hPa 0,0 l/m 0 min 0,0 UV-I 0 W/m 10,3 km/h (2 Bft)
06.02.2013 05:08 0,2 C -1,0 C 98 % 15 lf 991,9 hPa 0,0 l/m 0 min 0,0 UV-I 0 W/m 5,1 km/h (1 Bft)
06.02.2013 05:10 0,2 C -1,0 C 98 % 15 lf 991,9 hPa 0,0 l/m 0 min 0,0 UV-I 0 W/m 7,7 km/h (2 Bft)
06.02.2013 05:12 0,2 C -1,0 C 98 % 15 lf 991,9 hPa 0,0 l/m 0 min 0,0 UV-I 0 W/m 10,3 km/h (2 Bft)
06.02.2013 05:14 0,2 C -1,0 C 98 % 15 lf 991,9 hPa 0,0 l/m 0 min 0,0 UV-I 0 W/m 7,7 km/h (2 Bft)
06.02.2013 05:16 0,2 C -1,0 C 98 % 15 lf 991,9 hPa 0,0 l/m 0 min 0,0 UV-I 0 W/m 10,3 km/h (2 Bft)
06.02.2013 05:18 0,2 C -1,0 C 98 % 15 lf 991,9 hPa 0,0 l/m 0 min 0,0 UV-I 0 W/m 0,0 km/h (0 Bft)
06.02.2013 05:20 0,2 C -1,0 C 98 % 15 lf 991,9 hPa 0,0 l/m 0 min 0,0 UV-I 0 W/m 10,3 km/h (2 Bft)
06.02.2013 05:22 0,2 C -1,0 C 98 % 15 lf 991,9 hPa 0,0 l/m 0 min 0,0 UV-I 0 W/m 7,7 km/h (2 Bft)
06.02.2013 05:24 0,2 C -1,0 C 98 % 15 lf 991,9 hPa 0,0 l/m 0 min 0,0 UV-I 0 W/m 2,6 km/h (1 Bft)
06.02.2013 05:26 0,2 C -1,0 C 98 % 15 lf 991,9 hPa 0,0 l/m 0 min 0,0 UV-I 0 W/m 7,7 km/h (2 Bft)
06.02.2013 05:28 0,2 C -1,0 C 98 % 15 lf 991,8 hPa 0,0 l/m 0 min 0,0 UV-I 0 W/m 5,1 km/h (1 Bft)
06.02.2013 05:30 0,2 C -1,0 C 98 % 15 lf 991,9 hPa 0,0 l/m 0 min 0,0 UV-I 0 W/m 5,1 km/h (1 Bft)
06.02.2013 05:32 0,2 C -1,0 C 98 % 15 lf 991,9 hPa 0,0 l/m 0 min 0,0 UV-I 0 W/m 2,6 km/h (1 Bft)
06.02.2013 05:34 0,2 C -1,0 C 99 % 15 lf 991,9 hPa 0,0 l/m 0 min 0,0 UV-I 0 W/m 7,7 km/h (2 Bft)
06.02.2013 05:36 0,2 C -1,0 C 99 % 15 lf 991,8 hPa 0,0 l/m 0 min 0,0 UV-I 0 W/m 10,3 km/h (2 Bft)
06.02.2013 05:38 0,2 C -1,0 C 99 % 15 lf 991,8 hPa 0,0 l/m 0 min 0,0 UV-I 0 W/m 2,6 km/h (1 Bft)
06.02.2013 05:40 0,2 C -1,0 C 99 % 15 lf 991,9 hPa 0,0 l/m 0 min 0,0 UV-I 0 W/m 5,1 km/h (1 Bft)
06.02.2013 05:42 0,2 C -1,0 C 98 % 15 lf 991,9 hPa 0,0 l/m 0 min 0,0 UV-I 0 W/m 7,7 km/h (2 Bft)
06.02.2013 05:44 0,2 C -1,0 C 98 % 15 lf 991,8 hPa 0,0 l/m 0 min 0,0 UV-I 0 W/m 5,1 km/h (1 Bft)
06.02.2013 05:46 0,2 C -1,0 C 99 % 15 lf 991,8 hPa 0,0 l/m 0 min 0,0 UV-I 0 W/m 5,1 km/h (1 Bft)
06.02.2013 05:48 0,2 C -1,0 C 99 % 15 lf 991,8 hPa 0,0 l/m 0 min 0,0 UV-I 0 W/m 5,1 km/h (1 Bft)
06.02.2013 05:50 0,2 C -1,0 C 98 % 15 lf 991,8 hPa 0,0 l/m 0 min 0,0 UV-I 0 W/m 5,1 km/h (1 Bft)
06.02.2013 05:52 0,2 C -1,0 C 99 % 15 lf 991,8 hPa 0,0 l/m 0 min 0,0 UV-I 0 W/m 5,1 km/h (1 Bft)
06.02.2013 05:54 0,2 C -1,0 C 99 % 15 lf 991,8 hPa 0,0 l/m 0 min 0,0 UV-I 0 W/m 10,3 km/h (2 Bft)
06.02.2013 05:56 0,2 C -1,0 C 99 % 15 lf 991,9 hPa 0,0 l/m 0 min 0,0 UV-I 0 W/m 2,6 km/h (1 Bft)
06.02.2013 05:58 0,2 C -1,0 C 99 % 15 lf 991,8 hPa 0,0 l/m 0 min 0,0 UV-I 0 W/m 5,1 km/h (1 Bft)
06.02.2013 06:00 0,2 C -1,0 C 99 % 15 lf 991,8 hPa 0,0 l/m 0 min 0,0 UV-I 0 W/m 7,7 km/h (2 Bft)
06.02.2013 06:02 0,2 C -1,0 C 99 % 15 lf 991,8 hPa 0,0 l/m 0 min 0,0 UV-I 0 W/m 5,1 km/h (1 Bft)
06.02.2013 06:06 0,2 C -1,0 C 99 % 15 lf 991,9 hPa 0,0 l/m 0 min 0,0 UV-I 0 W/m 7,7 km/h (2 Bft)
06.02.2013 06:08 0,2 C -1,0 C 99 % 15 lf 991,9 hPa 0,0 l/m 0 min 0,0 UV-I 0 W/m 2,6 km/h (1 Bft)
06.02.2013 06:10 0,2 C -1,0 C 99 % 15 lf 991,9 hPa 0,0 l/m 0 min 0,0 UV-I 0 W/m 5,1 km/h (1 Bft)
06.02.2013 06:12 0,2 C -1,0 C 99 % 15 lf 991,9 hPa 0,0 l/m 0 min 0,0 UV-I 0 W/m 7,7 km/h (2 Bft)
06.02.2013 06:14 0,2 C -1,0 C 99 % 15 lf 991,9 hPa 0,0 l/m 0 min 0,0 UV-I 0 W/m 5,1 km/h (1 Bft)
06.02.2013 06:16 0,2 C -1,0 C 99 % 15 lf 991,9 hPa 0,0 l/m 0 min 0,0 UV-I 0 W/m 0,0 km/h (0 Bft)
06.02.2013 06:18 0,2 C -1,0 C 99 % 15 lf 992,0 hPa 0,0 l/m 0 min 0,0 UV-I 0 W/m 5,1 km/h (1 Bft)
06.02.2013 06:20 0,2 C -1,0 C 99 % 15 lf 991,9 hPa 0,0 l/m 0 min 0,0 UV-I 0 W/m 0,0 km/h (0 Bft)
06.02.2013 06:22 0,2 C -1,0 C 99 % 15 lf 991,9 hPa 0,0 l/m 0 min 0,0 UV-I 0 W/m 0,0 km/h (0 Bft)
06.02.2013 06:24 0,2 C -1,0 C 99 % 15 lf 991,9 hPa 0,0 l/m 0 min 0,0 UV-I 0 W/m 10,3 km/h (2 Bft)
06.02.2013 06:26 0,2 C -1,0 C 99 % 15 lf 991,9 hPa 0,0 l/m 0 min 0,0 UV-I 0 W/m 7,7 km/h (2 Bft)
06.02.2013 06:28 0,3 C -1,0 C 99 % 15 lf 991,9 hPa 0,0 l/m 0 min 0,0 UV-I 0 W/m 7,7 km/h (2 Bft)
06.02.2013 06:30 0,3 C -1,0 C 99 % 15 lf 991,9 hPa 0,0 l/m 0 min 0,0 UV-I 0 W/m 7,7 km/h (2 Bft)
06.02.2013 06:32 0,3 C -1,0 C 99 % 15 lf 991,9 hPa 0,0 l/m 0 min 0,0 UV-I 0 W/m 2,6 km/h (1 Bft)
06.02.2013 06:34 0,3 C -1,0 C 99 % 15 lf 992,0 hPa 0,0 l/m 0 min 0,0 UV-I 0 W/m 7,7 km/h (2 Bft)
06.02.2013 06:36 0,3 C -1,0 C 99 % 15 lf 991,9 hPa 0,0 l/m 0 min 0,0 UV-I 0 W/m 5,1 km/h (1 Bft)
06.02.2013 06:38 0,3 C -1,0 C 99 % 15 lf 992,0 hPa 0,0 l/m 0 min 0,0 UV-I 0 W/m 0,0 km/h (0 Bft)
06.02.2013 06:40 0,3 C -1,0 C 99 % 15 lf 991,9 hPa 0,0 l/m 0 min 0,0 UV-I 0 W/m 5,1 km/h (1 Bft)
06.02.2013 06:42 0,3 C -1,0 C 99 % 15 lf 992,0 hPa 0,0 l/m 0 min 0,0 UV-I 0 W/m 7,7 km/h (2 Bft)
06.02.2013 06:44 0,3 C -1,0 C 99 % 15 lf 992,0 hPa 0,0 l/m 0 min 0,0 UV-I 0 W/m 0,0 km/h (0 Bft)
06.02.2013 06:46 0,3 C -1,0 C 99 % 15 lf 992,0 hPa 0,0 l/m 0 min 0,0 UV-I 0 W/m 0,0 km/h (0 Bft)
06.02.2013 06:48 0,3 C -1,0 C 99 % 15 lf 992,0 hPa 0,0 l/m 0 min 0,0 UV-I 0 W/m 2,6 km/h (1 Bft)
06.02.2013 06:50 0,3 C -1,0 C 99 % 15 lf 992,0 hPa 0,0 l/m 0 min 0,0 UV-I 0 W/m 0,0 km/h (0 Bft)
06.02.2013 06:52 0,3 C -1,0 C 99 % 15 lf 992,0 hPa 0,0 l/m 0 min 0,0 UV-I 0 W/m 0,0 km/h (0 Bft)
06.02.2013 06:54 0,2 C -1,0 C 99 % 15 lf 992,0 hPa 0,0 l/m 0 min 0,0 UV-I 0 W/m 0,0 km/h (0 Bft)
06.02.2013 06:56 0,2 C -1,0 C 99 % 15 lf 992,1 hPa 0,0 l/m 0 min 0,0 UV-I 0 W/m 0,0 km/h (0 Bft)
06.02.2013 06:58 0,2 C -1,0 C 99 % 15 lf 992,2 hPa 0,0 l/m 0 min 0,0 UV-I 0 W/m 0,0 km/h (0 Bft)
06.02.2013 07:00 0,2 C -1,0 C 99 % 15 lf 992,1 hPa 0,0 l/m 0 min 0,0 UV-I 0 W/m 0,0 km/h (0 Bft)
06.02.2013 07:02 0,2 C -1,0 C 99 % 15 lf 992,1 hPa 0,0 l/m 0 min 0,0 UV-I 0 W/m 0,0 km/h (0 Bft)
06.02.2013 07:06 0,2 C -1,0 C 99 % 15 lf 992,2 hPa 0,4 l/m 0 min 0,0 UV-I 0 W/m 0,0 km/h (0 Bft)
06.02.2013 07:08 0,2 C -1,0 C 99 % 15 lf 992,2 hPa 0,2 l/m 0 min 0,0 UV-I 0 W/m 0,0 km/h (0 Bft)
06.02.2013 07:10 0,2 C -1,0 C 99 % 15 lf 992,2 hPa 0,4 l/m 0 min 0,0 UV-I 0 W/m 0,0 km/h (0 Bft)
06.02.2013 07:12 0,2 C -1,0 C 99 % 15 lf 992,3 hPa 0,2 l/m 0 min 0,0 UV-I 0 W/m 0,0 km/h (0 Bft)
06.02.2013 07:14 0,2 C -1,0 C 99 % 15 lf 992,3 hPa 0,2 l/m 0 min 0,0 UV-I 0 W/m 0,0 km/h (0 Bft)
06.02.2013 07:16 0,2 C -1,0 C 99 % 15 lf 992,3 hPa 0,2 l/m 0 min 0,0 UV-I 0 W/m 0,0 km/h (0 Bft)
06.02.2013 07:18 0,2 C -1,0 C 99 % 15 lf 992,4 hPa 0,2 l/m 0 min 0,0 UV-I 0 W/m 0,0 km/h (0 Bft)
06.02.2013 07:20 0,2 C -1,0 C 99 % 15 lf 992,4 hPa 0,2 l/m 0 min 0,0 UV-I 0 W/m 0,0 km/h (0 Bft)
06.02.2013 07:22 0,2 C -1,0 C 99 % 15 lf 992,4 hPa 0,2 l/m 0 min 0,0 UV-I 0 W/m 0,0 km/h (0 Bft)
06.02.2013 07:24 0,2 C -1,0 C 99 % 15 lf 992,4 hPa 0,2 l/m 0 min 0,0 UV-I 0 W/m 0,0 km/h (0 Bft)
06.02.2013 07:26 0,2 C -1,0 C 99 % 15 lf 992,5 hPa 0,4 l/m 0 min 0,0 UV-I 0 W/m 0,0 km/h (0 Bft)
06.02.2013 07:28 0,2 C -1,0 C 99 % 15 lf 992,5 hPa 0,2 l/m 0 min 0,0 UV-I 0 W/m 0,0 km/h (0 Bft)
06.02.2013 07:30 0,2 C -1,0 C 99 % 15 lf 992,5 hPa 0,2 l/m 0 min 0,0 UV-I 0 W/m 0,0 km/h (0 Bft)
06.02.2013 07:32 0,2 C -1,0 C 99 % 15 lf 992,5 hPa 0,2 l/m 0 min 0,0 UV-I 0 W/m 0,0 km/h (0 Bft)
06.02.2013 07:34 0,2 C -1,0 C 99 % 14 lf 992,6 hPa 0,2 l/m 0 min 0,0 UV-I 0 W/m 0,0 km/h (0 Bft)
06.02.2013 07:36 0,2 C -1,0 C 99 % 14 lf 992,6 hPa 0,2 l/m 0 min 0,0 UV-I 0 W/m 0,0 km/h (0 Bft)
06.02.2013 07:38 0,2 C -1,0 C 99 % 14 lf 992,6 hPa 0,0 l/m 0 min 0,0 UV-I 0 W/m 0,0 km/h (0 Bft)
06.02.2013 07:40 0,2 C -1,0 C 99 % 14 lf 992,6 hPa 0,2 l/m 0 min 0,0 UV-I 0 W/m 0,0 km/h (0 Bft)
06.02.2013 07:42 0,2 C -1,0 C 99 % 14 lf 992,7 hPa 0,2 l/m 0 min 0,0 UV-I 0 W/m 0,0 km/h (0 Bft)
06.02.2013 07:44 0,2 C -1,0 C 99 % 14 lf 992,7 hPa 0,2 l/m 0 min 0,0 UV-I 0 W/m 0,0 km/h (0 Bft)
06.02.2013 07:46 0,2 C -1,0 C 99 % 14 lf 992,6 hPa 0,2 l/m 0 min 0,0 UV-I 0 W/m 0,0 km/h (0 Bft)
06.02.2013 07:48 0,2 C -1,0 C 99 % 14 lf 992,7 hPa 0,2 l/m 0 min 0,0 UV-I 0 W/m 0,0 km/h (0 Bft)
06.02.2013 07:50 0,2 C -1,0 C 99 % 14 lf 992,7 hPa 0,2 l/m 0 min 0,0 UV-I 0 W/m 0,0 km/h (0 Bft)
06.02.2013 07:52 0,2 C -1,0 C 99 % 14 lf 992,7 hPa 0,2 l/m 0 min 0,0 UV-I 0 W/m 0,0 km/h (0 Bft)
06.02.2013 07:54 0,2 C -1,0 C 99 % 14 lf 992,8 hPa 0,2 l/m 0 min 0,0 UV-I 0 W/m 0,0 km/h (0 Bft)
06.02.2013 07:56 0,2 C -1,0 C 99 % 14 lf 992,8 hPa 0,2 l/m 0 min 0,0 UV-I 0 W/m 0,0 km/h (0 Bft)
06.02.2013 07:58 0,2 C -1,0 C 99 % 14 lf 992,8 hPa 0,2 l/m 0 min 0,0 UV-I 0 W/m 0,0 km/h (0 Bft)
06.02.2013 08:00 0,2 C -1,0 C 99 % 14 lf 992,8 hPa 0,2 l/m 0 min 0,0 UV-I 0 W/m 0,0 km/h (0 Bft)
06.02.2013 08:02 0,2 C -1,0 C 99 % 14 lf 992,8 hPa 0,2 l/m 0 min 0,0 UV-I 0 W/m 0,0 km/h (0 Bft)
06.02.2013 08:04 0,2 C -1,0 C 99 % 14 lf 992,9 hPa 0,2 l/m 0 min 0,0 UV-I 0 W/m 0,0 km/h (0 Bft)
06.02.2013 08:08 0,2 C -1,0 C 99 % 15 lf 992,9 hPa 0,2 l/m 0 min 0,0 UV-I 0 W/m 0,0 km/h (0 Bft)
06.02.2013 08:10 0,2 C -1,0 C 99 % 15 lf 993,0 hPa 0,2 l/m 0 min 0,0 UV-I 0 W/m 0,0 km/h (0 Bft)
06.02.2013 08:12 0,2 C -1,0 C 99 % 15 lf 993,0 hPa 0,2 l/m 0 min 0,0 UV-I 0 W/m 0,0 km/h (0 Bft)
06.02.2013 08:14 0,2 C -1,0 C 99 % 15 lf 993,1 hPa 0,2 l/m 0 min 0,0 UV-I 0 W/m 0,0 km/h (0 Bft)
06.02.2013 08:16 0,2 C -1,0 C 99 % 15 lf 993,1 hPa 0,0 l/m 0 min 0,0 UV-I 0 W/m 0,0 km/h (0 Bft)
06.02.2013 08:18 0,2 C -1,0 C 99 % 15 lf 993,1 hPa 0,2 l/m 0 min 0,0 UV-I 0 W/m 0,0 km/h (0 Bft)
06.02.2013 08:20 0,2 C -1,0 C 99 % 15 lf 993,1 hPa 0,0 l/m 0 min 0,0 UV-I 0 W/m 0,0 km/h (0 Bft)
06.02.2013 08:22 0,2 C -1,0 C 99 % 15 lf 993,2 hPa 0,2 l/m 0 min 0,0 UV-I 0 W/m 0,0 km/h (0 Bft)
06.02.2013 08:24 0,2 C -1,0 C 99 % 15 lf 993,2 hPa 0,0 l/m 0 min 0,0 UV-I 0 W/m 0,0 km/h (0 Bft)
06.02.2013 08:26 0,2 C -1,0 C 99 % 15 lf 993,2 hPa 0,2 l/m 0 min 0,0 UV-I 0 W/m 0,0 km/h (0 Bft)
06.02.2013 08:28 0,2 C -1,0 C 99 % 15 lf 993,3 hPa 0,0 l/m 0 min 0,0 UV-I 0 W/m 0,0 km/h (0 Bft)
06.02.2013 08:30 0,2 C -1,0 C 99 % 15 lf 993,3 hPa 0,2 l/m 0 min 0,0 UV-I 0 W/m 0,0 km/h (0 Bft)
06.02.2013 08:32 0,2 C -1,0 C 99 % 15 lf 993,3 hPa 0,0 l/m 0 min 0,0 UV-I 0 W/m 0,0 km/h (0 Bft)
06.02.2013 08:34 0,2 C -1,0 C 99 % 15 lf 993,3 hPa 0,2 l/m 0 min 0,0 UV-I 0 W/m 0,0 km/h (0 Bft)
06.02.2013 08:36 0,2 C -1,0 C 99 % 15 lf 993,3 hPa 0,0 l/m 0 min 0,0 UV-I 0 W/m 0,0 km/h (0 Bft)
06.02.2013 08:38 0,2 C -1,0 C 99 % 15 lf 993,3 hPa 0,0 l/m 0 min 0,0 UV-I 0 W/m 0,0 km/h (0 Bft)
06.02.2013 08:40 0,2 C -1,0 C 99 % 15 lf 993,4 hPa 0,0 l/m 0 min 0,0 UV-I 0 W/m 0,0 km/h (0 Bft)
06.02.2013 08:42 0,2 C -1,0 C 99 % 15 lf 993,4 hPa 0,0 l/m 0 min 0,0 UV-I 0 W/m 0,0 km/h (0 Bft)
06.02.2013 08:44 0,2 C -1,0 C 99 % 15 lf 993,4 hPa 0,0 l/m 0 min 0,0 UV-I 0 W/m 0,0 km/h (0 Bft)
06.02.2013 08:46 0,2 C -1,0 C 99 % 15 lf 993,5 hPa 0,0 l/m 0 min 0,0 UV-I 0 W/m 0,0 km/h (0 Bft)
06.02.2013 08:48 0,2 C -1,0 C 99 % 15 lf 993,5 hPa 0,0 l/m 0 min 0,0 UV-I 5 W/m 0,0 km/h (0 Bft)
06.02.2013 08:50 0,2 C -1,0 C 99 % 15 lf 993,5 hPa 0,0 l/m 0 min 0,0 UV-I 5 W/m 2,6 km/h (1 Bft)
06.02.2013 08:52 0,2 C -1,0 C 99 % 15 lf 993,6 hPa 0,0 l/m 0 min 0,0 UV-I 5 W/m 0,0 km/h (0 Bft)
06.02.2013 08:54 0,2 C -1,0 C 99 % 15 lf 993,5 hPa 0,0 l/m 0 min 0,0 UV-I 5 W/m 0,0 km/h (0 Bft)
06.02.2013 08:56 0,2 C -1,0 C 99 % 15 lf 993,5 hPa 0,0 l/m 0 min 0,0 UV-I 5 W/m 0,0 km/h (0 Bft)
06.02.2013 08:58 0,2 C -1,0 C 99 % 15 lf 993,6 hPa 0,0 l/m 0 min 0,0 UV-I 5 W/m 0,0 km/h (0 Bft)
06.02.2013 09:00 0,3 C -1,0 C 99 % 15 lf 993,7 hPa 0,0 l/m 0 min 0,0 UV-I 5 W/m 0,0 km/h (0 Bft)
06.02.2013 09:02 0,3 C -1,0 C 99 % 15 lf 993,7 hPa 0,0 l/m 0 min 0,0 UV-I 5 W/m 0,0 km/h (0 Bft)
06.02.2013 09:06 0,3 C -1,0 C 99 % 15 lf 993,8 hPa 0,2 l/m 0 min 0,0 UV-I 7 W/m 0,0 km/h (0 Bft)
06.02.2013 09:08 0,3 C -1,0 C 99 % 15 lf 993,8 hPa 0,0 l/m 0 min 0,0 UV-I 7 W/m 0,0 km/h (0 Bft)
06.02.2013 09:10 0,3 C -1,0 C 99 % 15 lf 993,8 hPa 0,2 l/m 0 min 0,0 UV-I 7 W/m 0,0 km/h (0 Bft)
06.02.2013 09:12 0,3 C -1,0 C 99 % 15 lf 993,8 hPa 0,2 l/m 0 min 0,0 UV-I 9 W/m 0,0 km/h (0 Bft)
06.02.2013 09:14 0,3 C -1,0 C 99 % 15 lf 993,9 hPa 0,0 l/m 0 min 0,0 UV-I 9 W/m 0,0 km/h (0 Bft)
06.02.2013 09:16 0,3 C -1,0 C 99 % 15 lf 993,9 hPa 0,0 l/m 0 min 0,0 UV-I 9 W/m 0,0 km/h (0 Bft)
06.02.2013 09:18 0,3 C -1,0 C 99 % 15 lf 993,9 hPa 0,0 l/m 0 min 0,0 UV-I 11 W/m 0,0 km/h (0 Bft)
06.02.2013 09:20 0,3 C -1,0 C 99 % 15 lf 994,0 hPa 0,0 l/m 0 min 0,0 UV-I 11 W/m 0,0 km/h (0 Bft)
06.02.2013 09:22 0,3 C -1,0 C 99 % 15 lf 994,0 hPa 0,0 l/m 0 min 0,0 UV-I 11 W/m 0,0 km/h (0 Bft)
06.02.2013 09:24 0,3 C -1,0 C 99 % 15 lf 994,0 hPa 0,0 l/m 0 min 0,0 UV-I 11 W/m 0,0 km/h (0 Bft)
06.02.2013 09:26 0,3 C -1,0 C 99 % 15 lf 994,0 hPa 0,2 l/m 0 min 0,0 UV-I 12 W/m 0,0 km/h (0 Bft)
06.02.2013 09:28 0,4 C -1,0 C 99 % 15 lf 994,1 hPa 0,0 l/m 0 min 0,0 UV-I 12 W/m 0,0 km/h (0 Bft)
06.02.2013 09:30 0,4 C -1,0 C 99 % 15 lf 994,1 hPa 0,0 l/m 0 min 0,0 UV-I 14 W/m 0,0 km/h (0 Bft)
06.02.2013 09:32 0,4 C -1,0 C 99 % 15 lf 994,1 hPa 0,0 l/m 0 min 0,0 UV-I 14 W/m 0,0 km/h (0 Bft)
06.02.2013 09:34 0,4 C -1,0 C 99 % 15 lf 994,2 hPa 0,0 l/m 0 min 0,0 UV-I 14 W/m 0,0 km/h (0 Bft)
06.02.2013 09:36 0,4 C -1,0 C 99 % 15 lf 994,2 hPa 0,0 l/m 0 min 0,0 UV-I 14 W/m 0,0 km/h (0 Bft)
06.02.2013 09:38 0,4 C -1,0 C 99 % 15 lf 994,3 hPa 0,0 l/m 0 min 0,0 UV-I 12 W/m 0,0 km/h (0 Bft)
06.02.2013 09:40 0,4 C -1,0 C 99 % 15 lf 994,4 hPa 0,2 l/m 0 min 0,0 UV-I 14 W/m 0,0 km/h (0 Bft)
06.02.2013 09:42 0,4 C -1,0 C 99 % 15 lf 994,5 hPa 0,0 l/m 0 min 0,0 UV-I 14 W/m 0,0 km/h (0 Bft)
06.02.2013 09:44 0,4 C -1,0 C 99 % 15 lf 994,5 hPa 0,0 l/m 0 min 0,0 UV-I 12 W/m 0,0 km/h (0 Bft)
06.02.2013 09:46 0,5 C -1,0 C 99 % 15 lf 994,5 hPa 0,0 l/m 0 min 0,0 UV-I 12 W/m 0,0 km/h (0 Bft)
06.02.2013 09:48 0,5 C -1,0 C 99 % 15 lf 994,6 hPa 0,0 l/m 0 min 0,0 UV-I 16 W/m 0,0 km/h (0 Bft)
06.02.2013 09:50 0,5 C -1,0 C 99 % 15 lf 994,6 hPa 0,0 l/m 0 min 0,0 UV-I 18 W/m 0,0 km/h (0 Bft)
06.02.2013 09:52 0,5 C -1,0 C 99 % 15 lf 994,7 hPa 0,0 l/m 0 min 0,0 UV-I 16 W/m 0,0 km/h (0 Bft)
06.02.2013 09:54 0,5 C -1,0 C 99 % 15 lf 994,8 hPa 0,0 l/m 0 min 0,0 UV-I 12 W/m 0,0 km/h (0 Bft)
06.02.2013 09:56 0,6 C -1,0 C 99 % 15 lf 994,9 hPa 0,0 l/m 0 min 0,0 UV-I 12 W/m 0,0 km/h (0 Bft)
06.02.2013 09:58 0,5 C -1,0 C 99 % 15 lf 994,9 hPa 0,0 l/m 0 min 0,0 UV-I 11 W/m 0,0 km/h (0 Bft)
06.02.2013 10:00 0,5 C -1,0 C 99 % 15 lf 994,9 hPa 0,0 l/m 0 min 0,0 UV-I 11 W/m 0,0 km/h (0 Bft)
06.02.2013 10:02 0,5 C -1,0 C 99 % 15 lf 995,0 hPa 0,0 l/m 0 min 0,0 UV-I 12 W/m 0,0 km/h (0 Bft)
06.02.2013 10:06 0,5 C -1,0 C 99 % 15 lf 995,1 hPa 0,0 l/m 0 min 0,0 UV-I 12 W/m 0,0 km/h (0 Bft)
06.02.2013 10:08 0,5 C -1,0 C 99 % 15 lf 995,1 hPa 0,0 l/m 0 min 0,0 UV-I 12 W/m 10,3 km/h (2 Bft)
06.02.2013 10:10 0,5 C -1,0 C 99 % 15 lf 995,2 hPa 0,0 l/m 0 min 0,0 UV-I 12 W/m 5,1 km/h (1 Bft)
06.02.2013 10:12 0,5 C -0,4 C 99 % 15 lf 995,3 hPa 0,0 l/m 0 min 0,0 UV-I 14 W/m 0,0 km/h (0 Bft)
06.02.2013 10:14 0,5 C -0,4 C 99 % 15 lf 995,2 hPa 0,0 l/m 0 min 0,0 UV-I 14 W/m 10,3 km/h (2 Bft)
06.02.2013 10:16 0,5 C -0,4 C 99 % 15 lf 995,2 hPa 0,0 l/m 0 min 0,0 UV-I 14 W/m 5,1 km/h (1 Bft)
06.02.2013 10:18 0,5 C -1,0 C 99 % 15 lf 995,3 hPa 0,0 l/m 0 min 0,0 UV-I 14 W/m 0,0 km/h (0 Bft)
06.02.2013 10:20 0,5 C -0,4 C 99 % 15 lf 995,4 hPa 0,0 l/m 0 min 0,0 UV-I 14 W/m 12,9 km/h (3 Bft)
06.02.2013 10:22 0,5 C -1,0 C 99 % 15 lf 995,5 hPa 0,0 l/m 0 min 0,0 UV-I 16 W/m 5,1 km/h (1 Bft)
06.02.2013 10:24 0,5 C -1,0 C 99 % 15 lf 995,6 hPa 0,0 l/m 0 min 0,0 UV-I 16 W/m 2,6 km/h (1 Bft)
06.02.2013 10:26 0,5 C -0,4 C 99 % 15 lf 995,7 hPa 0,0 l/m 0 min 0,0 UV-I 19 W/m 7,7 km/h (2 Bft)
06.02.2013 10:28 0,5 C -0,4 C 99 % 15 lf 995,7 hPa 0,0 l/m 0 min 0,0 UV-I 23 W/m 2,6 km/h (1 Bft)
06.02.2013 10:30 0,5 C -0,4 C 99 % 15 lf 995,7 hPa 0,2 l/m 0 min 0,0 UV-I 28 W/m 5,1 km/h (1 Bft)
06.02.2013 10:32 0,5 C -1,0 C 99 % 15 lf 995,7 hPa 0,0 l/m 0 min 0,0 UV-I 35 W/m 5,1 km/h (1 Bft)
06.02.2013 10:34 0,6 C -0,4 C 99 % 15 lf 995,7 hPa 0,0 l/m 0 min 0,0 UV-I 39 W/m 0,0 km/h (0 Bft)
06.02.2013 10:36 0,6 C -0,4 C 100 % 15 lf 995,8 hPa 0,0 l/m 0 min 0,0 UV-I 42 W/m 0,0 km/h (0 Bft)
06.02.2013 10:38 0,6 C -0,4 C 100 % 15 lf 995,8 hPa 0,0 l/m 0 min 0,0 UV-I 44 W/m 0,0 km/h (0 Bft)
06.02.2013 10:40 0,7 C -0,4 C 100 % 15 lf 995,9 hPa 0,0 l/m 0 min 0,0 UV-I 44 W/m 0,0 km/h (0 Bft)
06.02.2013 10:42 0,7 C -0,4 C 100 % 15 lf 995,9 hPa 0,0 l/m 0 min 0,0 UV-I 42 W/m 2,6 km/h (1 Bft)
06.02.2013 10:44 0,7 C -0,4 C 100 % 15 lf 996,0 hPa 0,0 l/m 0 min 0,0 UV-I 39 W/m 10,3 km/h (2 Bft)
06.02.2013 10:46 0,7 C -0,4 C 100 % 15 lf 996,0 hPa 0,0 l/m 0 min 0,0 UV-I 37 W/m 10,3 km/h (2 Bft)
06.02.2013 10:48 0,7 C -0,4 C 100 % 15 lf 996,1 hPa 0,0 l/m 0 min 0,0 UV-I 44 W/m 12,9 km/h (3 Bft)
06.02.2013 10:50 0,7 C -0,4 C 99 % 15 lf 996,0 hPa 0,0 l/m 0 min 0,0 UV-I 49 W/m 12,9 km/h (3 Bft)
06.02.2013 10:52 0,7 C -0,4 C 99 % 15 lf 996,1 hPa 0,0 l/m 0 min 0,0 UV-I 42 W/m 15,4 km/h (3 Bft)
06.02.2013 10:54 0,7 C -0,4 C 99 % 15 lf 996,2 hPa 0,2 l/m 0 min 0,0 UV-I 37 W/m 12,9 km/h (3 Bft)
06.02.2013 10:56 0,7 C -0,4 C 99 % 15 lf 996,2 hPa 0,0 l/m 0 min 0,0 UV-I 33 W/m 12,9 km/h (3 Bft)
06.02.2013 10:58 0,7 C -0,4 C 100 % 14 lf 996,3 hPa 0,0 l/m 0 min 0,0 UV-I 32 W/m 7,7 km/h (2 Bft)
06.02.2013 11:00 0,7 C -0,4 C 100 % 14 lf 996,4 hPa 0,0 l/m 0 min 0,0 UV-I 30 W/m 12,9 km/h (3 Bft)
06.02.2013 11:02 0,7 C -0,4 C 100 % 14 lf 996,4 hPa 0,0 l/m 0 min 0,0 UV-I 30 W/m 12,9 km/h (3 Bft)
06.02.2013 11:06 0,7 C -0,4 C 100 % 14 lf 996,5 hPa 0,0 l/m 0 min 0,0 UV-I 30 W/m 18,0 km/h (3 Bft)
06.02.2013 11:08 0,7 C -0,4 C 100 % 14 lf 996,5 hPa 0,0 l/m 0 min 0,0 UV-I 33 W/m 12,9 km/h (3 Bft)
06.02.2013 11:10 0,7 C -0,4 C 100 % 14 lf 996,5 hPa 0,0 l/m 0 min 0,0 UV-I 33 W/m 12,9 km/h (3 Bft)
06.02.2013 11:12 0,7 C -0,4 C 100 % 14 lf 996,6 hPa 0,0 l/m 0 min 0,0 UV-I 33 W/m 12,9 km/h (3 Bft)
06.02.2013 11:14 0,7 C -0,4 C 100 % 14 lf 996,7 hPa 0,0 l/m 0 min 0,0 UV-I 40 W/m 12,9 km/h (3 Bft)
06.02.2013 11:16 0,7 C -0,4 C 100 % 14 lf 996,7 hPa 0,0 l/m 0 min 0,0 UV-I 51 W/m 12,9 km/h (3 Bft)
06.02.2013 11:18 0,7 C -0,4 C 100 % 14 lf 996,8 hPa 0,0 l/m 0 min 0,0 UV-I 53 W/m 12,9 km/h (3 Bft)
06.02.2013 11:20 0,7 C -0,4 C 100 % 13 lf 996,8 hPa 0,0 l/m 0 min 0,0 UV-I 51 W/m 18,0 km/h (3 Bft)
06.02.2013 11:22 0,7 C -0,4 C 100 % 13 lf 996,8 hPa 0,0 l/m 0 min 0,0 UV-I 51 W/m 15,4 km/h (3 Bft)
06.02.2013 11:24 0,7 C -0,4 C 100 % 13 lf 996,9 hPa 0,0 l/m 0 min 0,0 UV-I 51 W/m 12,9 km/h (3 Bft)
06.02.2013 11:26 0,7 C -0,4 C 99 % 13 lf 996,9 hPa 0,0 l/m 0 min 0,0 UV-I 51 W/m 12,9 km/h (3 Bft)
06.02.2013 11:28 0,7 C -0,4 C 99 % 12 lf 997,0 hPa 0,0 l/m 0 min 0,0 UV-I 62 W/m 12,9 km/h (3 Bft)
06.02.2013 11:30 0,7 C -0,4 C 99 % 13 lf 997,0 hPa 0,0 l/m 0 min 0,0 UV-I 58 W/m 18,0 km/h (3 Bft)
06.02.2013 11:32 0,8 C -0,4 C 99 % 13 lf 997,1 hPa 0,0 l/m 0 min 0,0 UV-I 56 W/m 12,9 km/h (3 Bft)
06.02.2013 11:34 0,8 C -0,4 C 99 % 13 lf 997,1 hPa 0,0 l/m 0 min 0,0 UV-I 56 W/m 12,9 km/h (3 Bft)
06.02.2013 11:36 0,8 C -0,4 C 99 % 13 lf 997,1 hPa 0,0 l/m 0 min 0,0 UV-I 54 W/m 15,4 km/h (3 Bft)
06.02.2013 11:38 0,8 C -0,4 C 99 % 12 lf 997,2 hPa 0,0 l/m 0 min 0,0 UV-I 49 W/m 15,4 km/h (3 Bft)
06.02.2013 11:40 0,8 C -0,4 C 99 % 12 lf 997,3 hPa 0,0 l/m 0 min 0,0 UV-I 58 W/m 18,0 km/h (3 Bft)
06.02.2013 11:42 0,8 C -0,4 C 99 % 12 lf 997,3 hPa 0,0 l/m 0 min 0,0 UV-I 62 W/m 25,7 km/h (4 Bft)
06.02.2013 11:44 0,8 C -0,4 C 99 % 11 lf 997,3 hPa 0,0 l/m 0 min 0,0 UV-I 62 W/m 18,0 km/h (3 Bft)
06.02.2013 11:46 0,8 C -0,4 C 99 % 11 lf 997,3 hPa 0,0 l/m 0 min 0,0 UV-I 63 W/m 12,9 km/h (3 Bft)
06.02.2013 11:48 0,8 C -0,4 C 99 % 10 lf 997,4 hPa 0,0 l/m 0 min 0,0 UV-I 60 W/m 18,0 km/h (3 Bft)
06.02.2013 11:50 0,8 C -0,4 C 99 % 10 lf 997,5 hPa 0,0 l/m 0 min 0,0 UV-I 58 W/m 12,9 km/h (3 Bft)
06.02.2013 11:52 0,8 C -0,4 C 99 % 10 lf 997,5 hPa 0,0 l/m 0 min 0,0 UV-I 58 W/m 12,9 km/h (3 Bft)
06.02.2013 11:54 0,8 C -0,4 C 99 % 10 lf 997,5 hPa 0,0 l/m 0 min 0,0 UV-I 72 W/m 12,9 km/h (3 Bft)
06.02.2013 11:56 0,8 C -0,4 C 99 % 10 lf 997,5 hPa 0,0 l/m 0 min 0,0 UV-I 70 W/m 15,4 km/h (3 Bft)
06.02.2013 11:58 0,8 C -0,4 C 99 % 10 lf 997,6 hPa 0,0 l/m 0 min 0,0 UV-I 77 W/m 18,0 km/h (3 Bft)
06.02.2013 12:00 0,8 C -0,4 C 99 % 11 lf 997,6 hPa 0,0 l/m 0 min 0,0 UV-I 84 W/m 15,4 km/h (3 Bft)
06.02.2013 12:02 0,9 C -0,4 C 99 % 10 lf 997,5 hPa 0,0 l/m 0 min 0,0 UV-I 98 W/m 7,7 km/h (2 Bft)
06.02.2013 12:04 0,9 C -0,4 C 99 % 10 lf 997,7 hPa 0,0 l/m 0 min 0,0 UV-I 88 W/m 15,4 km/h (3 Bft)
06.02.2013 12:08 0,9 C -0,4 C 99 % 10 lf 997,8 hPa 0,2 l/m 0 min 0,0 UV-I 81 W/m 23,2 km/h (4 Bft)
06.02.2013 12:10 0,9 C -0,4 C 99 % 10 lf 997,8 hPa 0,0 l/m 0 min 0,0 UV-I 69 W/m 18,0 km/h (3 Bft)
06.02.2013 12:12 0,9 C -0,4 C 99 % 10 lf 997,9 hPa 0,0 l/m 0 min 0,0 UV-I 67 W/m 15,4 km/h (3 Bft)
06.02.2013 12:14 0,9 C -0,4 C 99 % 10 lf 998,0 hPa 0,0 l/m 0 min 0,0 UV-I 60 W/m 12,9 km/h (3 Bft)
06.02.2013 12:16 0,9 C -0,4 C 99 % 10 lf 998,0 hPa 0,0 l/m 0 min 0,0 UV-I 58 W/m 15,4 km/h (3 Bft)
06.02.2013 12:18 0,9 C -0,4 C 99 % 10 lf 998,0 hPa 0,0 l/m 0 min 0,0 UV-I 53 W/m 12,9 km/h (3 Bft)
06.02.2013 12:20 0,9 C -0,4 C 99 % 10 lf 998,1 hPa 0,0 l/m 0 min 0,0 UV-I 65 W/m 10,3 km/h (2 Bft)
06.02.2013 12:22 0,9 C -0,4 C 99 % 10 lf 998,1 hPa 0,0 l/m 0 min 0,0 UV-I 76 W/m 12,9 km/h (3 Bft)
06.02.2013 12:24 0,9 C -0,4 C 99 % 10 lf 998,2 hPa 0,0 l/m 0 min 0,0 UV-I 90 W/m 15,4 km/h (3 Bft)
06.02.2013 12:26 0,9 C 0,1 C 99 % 10 lf 998,2 hPa 0,0 l/m 0 min 0,0 UV-I 91 W/m 12,9 km/h (3 Bft)
06.02.2013 12:28 0,9 C 0,1 C 99 % 10 lf 998,3 hPa 0,0 l/m 0 min 0,0 UV-I 102 W/m 20,6 km/h (4 Bft)
06.02.2013 12:30 1,0 C 0,1 C 99 % 10 lf 998,3 hPa 0,0 l/m 0 min 0,0 UV-I 109 W/m 10,3 km/h (2 Bft)
06.02.2013 12:32 1,0 C 0,1 C 99 % 10 lf 998,3 hPa 0,0 l/m 0 min 0,0 UV-I 132 W/m 15,4 km/h (3 Bft)
06.02.2013 12:34 1,1 C 0,1 C 99 % 10 lf 998,4 hPa 0,0 l/m 0 min 0,0 UV-I 141 W/m 10,3 km/h (2 Bft)
06.02.2013 12:36 1,1 C 0,1 C 99 % 10 lf 998,4 hPa 0,0 l/m 0 min 0,0 UV-I 113 W/m 12,9 km/h (3 Bft)
06.02.2013 12:38 1,1 C 0,1 C 99 % 11 lf 998,5 hPa 0,0 l/m 0 min 0,0 UV-I 111 W/m 15,4 km/h (3 Bft)
06.02.2013 12:40 1,1 C 0,1 C 99 % 12 lf 998,5 hPa 0,0 l/m 0 min 0,0 UV-I 120 W/m 15,4 km/h (3 Bft)
06.02.2013 12:42 1,1 C 0,1 C 99 % 13 lf 998,5 hPa 0,0 l/m 0 min 0,0 UV-I 128 W/m 18,0 km/h (3 Bft)
06.02.2013 12:44 1,2 C 0,1 C 99 % 13 lf 998,5 hPa 0,0 l/m 0 min 0,0 UV-I 121 W/m 23,2 km/h (4 Bft)
06.02.2013 12:46 1,2 C 0,1 C 99 % 13 lf 998,4 hPa 0,0 l/m 0 min 0,0 UV-I 104 W/m 20,6 km/h (4 Bft)
06.02.2013 12:48 1,2 C 0,1 C 99 % 13 lf 998,5 hPa 0,2 l/m 0 min 0,0 UV-I 105 W/m 18,0 km/h (3 Bft)
06.02.2013 12:50 1,2 C 0,1 C 98 % 12 lf 998,5 hPa 0,0 l/m 0 min 0,0 UV-I 120 W/m 20,6 km/h (4 Bft)
06.02.2013 12:52 1,2 C 0,1 C 99 % 12 lf 998,5 hPa 0,0 l/m 0 min 0,0 UV-I 137 W/m 15,4 km/h (3 Bft)
06.02.2013 12:54 1,2 C 0,1 C 98 % 12 lf 998,6 hPa 0,0 l/m 0 min 0,0 UV-I 148 W/m 15,4 km/h (3 Bft)
06.02.2013 12:56 1,2 C 0,1 C 98 % 11 lf 998,7 hPa 0,0 l/m 0 min 0,0 UV-I 146 W/m 18,0 km/h (3 Bft)
06.02.2013 12:58 1,3 C 0,1 C 98 % 10 lf 998,7 hPa 0,0 l/m 0 min 0,0 UV-I 158 W/m 15,4 km/h (3 Bft)
06.02.2013 13:00 1,3 C 0,1 C 98 % 10 lf 998,7 hPa 0,0 l/m 0 min 0,0 UV-I 176 W/m 18,0 km/h (3 Bft)
06.02.2013 13:02 1,3 C 0,1 C 98 % 9 lf 998,7 hPa 0,0 l/m 0 min 0,0 UV-I 167 W/m 18,0 km/h (3 Bft)
06.02.2013 13:04 1,3 C 0,1 C 98 % 7 lf 998,7 hPa 0,0 l/m 0 min 0,0 UV-I 178 W/m 12,9 km/h (3 Bft)
06.02.2013 13:08 1,3 C 0,7 C 98 % 4 lf 998,8 hPa 0,0 l/m 0 min 0,0 UV-I 169 W/m 15,4 km/h (3 Bft)
06.02.2013 13:10 1,3 C 0,7 C 98 % 4 lf 998,9 hPa 0,0 l/m 0 min 0,0 UV-I 181 W/m 10,3 km/h (2 Bft)
06.02.2013 13:12 1,4 C 0,7 C 98 % 3 lf 998,9 hPa 0,0 l/m 0 min 0,0 UV-I 158 W/m 15,4 km/h (3 Bft)
06.02.2013 13:14 1,4 C 0,7 C 98 % 3 lf 998,9 hPa 0,0 l/m 0 min 0,0 UV-I 167 W/m 15,4 km/h (3 Bft)
06.02.2013 13:16 1,5 C 0,7 C 98 % 2 lf 999,0 hPa 0,0 l/m 0 min 0,0 UV-I 204 W/m 12,9 km/h (3 Bft)
06.02.2013 13:18 1,5 C 0,1 C 97 % 1 lf 999,0 hPa 0,0 l/m 0 min 0,0 UV-I 216 W/m 20,6 km/h (4 Bft)
06.02.2013 13:20 1,6 C 0,7 C 97 % 1 lf 999,0 hPa 0,0 l/m 0 min 0,0 UV-I 216 W/m 10,3 km/h (2 Bft)
06.02.2013 13:22 1,6 C 0,7 C 97 % 1 lf 999,0 hPa 0,0 l/m 2 min 0,0 UV-I 236 W/m 12,9 km/h (3 Bft)
06.02.2013 13:24 1,7 C 0,7 C 97 % 1 lf 999,0 hPa 0,0 l/m 0 min 0,0 UV-I 181 W/m 25,7 km/h (4 Bft)
06.02.2013 13:26 1,7 C 0,7 C 97 % 1 lf 999,0 hPa 0,0 l/m 0 min 0,0 UV-I 211 W/m 10,3 km/h (2 Bft)
06.02.2013 13:28 1,7 C 0,7 C 97 % 1 lf 999,1 hPa 0,0 l/m 0 min 0,0 UV-I 214 W/m 20,6 km/h (4 Bft)
06.02.2013 13:30 1,7 C 0,7 C 97 % 1 lf 999,1 hPa 0,0 l/m 0 min 0,0 UV-I 137 W/m 18,0 km/h (3 Bft)
06.02.2013 13:32 1,8 C 0,1 C 96 % 1 lf 999,3 hPa 0,0 l/m 0 min 0,0 UV-I 160 W/m 23,2 km/h (4 Bft)
06.02.2013 13:34 1,7 C 0,1 C 96 % 1 lf 999,3 hPa 0,0 l/m 2 min 0,0 UV-I 218 W/m 15,4 km/h (3 Bft)
06.02.2013 13:36 1,7 C 0,1 C 96 % 0 lf 999,2 hPa 0,0 l/m 0 min 0,0 UV-I 213 W/m 18,0 km/h (3 Bft)
06.02.2013 13:38 1,7 C 0,1 C 96 % 0 lf 999,4 hPa 0,0 l/m 2 min 0,0 UV-I 341 W/m 12,9 km/h (3 Bft)
06.02.2013 13:40 1,7 C 0,1 C 96 % 0 lf 999,3 hPa 0,0 l/m 2 min 0,0 UV-I 272 W/m 18,0 km/h (3 Bft)
06.02.2013 13:42 1,7 C 0,1 C 96 % 0 lf 999,4 hPa 0,0 l/m 2 min 0,0 UV-I 257 W/m 18,0 km/h (3 Bft)
06.02.2013 13:44 1,7 C 0,1 C 96 % 0 lf 999,5 hPa 0,0 l/m 2 min 0,0 UV-I 257 W/m 25,7 km/h (4 Bft)
06.02.2013 13:46 1,7 C 0,1 C 96 % 0 lf 999,6 hPa 0,0 l/m 2 min 0,0 UV-I 299 W/m 20,6 km/h (4 Bft)
06.02.2013 13:48 1,7 C 0,1 C 96 % 0 lf 999,6 hPa 0,0 l/m 2 min 0,0 UV-I 232 W/m 18,0 km/h (3 Bft)
06.02.2013 13:50 1,7 C 0,1 C 96 % 0 lf 999,7 hPa 0,0 l/m 2 min 0,0 UV-I 237 W/m 15,4 km/h (3 Bft)
06.02.2013 13:52 1,7 C 0,1 C 96 % 0 lf 999,6 hPa 0,2 l/m 0 min 0,0 UV-I 178 W/m 10,3 km/h (2 Bft)
06.02.2013 13:54 1,7 C 0,1 C 95 % 0 lf 999,6 hPa 0,0 l/m 0 min 0,0 UV-I 172 W/m 10,3 km/h (2 Bft)
06.02.2013 13:56 1,7 C 0,1 C 95 % 0 lf 999,7 hPa 0,0 l/m 0 min 0,0 UV-I 186 W/m 12,9 km/h (3 Bft)
06.02.2013 13:58 1,7 C 0,1 C 95 % 0 lf 999,8 hPa 0,0 l/m 0 min 0,0 UV-I 186 W/m 7,7 km/h (2 Bft)
06.02.2013 14:00 1,7 C 0,1 C 95 % 0 lf 999,8 hPa 0,0 l/m 0 min 0,0 UV-I 188 W/m 10,3 km/h (2 Bft)
06.02.2013 14:02 1,7 C 0,1 C 95 % 0 lf 999,8 hPa 0,0 l/m 0 min 0,0 UV-I 167 W/m 10,3 km/h (2 Bft)
06.02.2013 14:06 1,7 C 0,1 C 95 % 0 lf 999,9 hPa 0,0 l/m 2 min 0,0 UV-I 214 W/m 12,9 km/h (3 Bft)
06.02.2013 14:08 1,7 C 0,1 C 95 % 0 lf 999,9 hPa 0,0 l/m 2 min 0,0 UV-I 234 W/m 10,3 km/h (2 Bft)
06.02.2013 14:10 1,7 C 0,1 C 95 % 0 lf 999,9 hPa 0,0 l/m 2 min 0,0 UV-I 292 W/m 7,7 km/h (2 Bft)
06.02.2013 14:12 1,7 C 0,1 C 95 % 0 lf 999,9 hPa 0,0 l/m 2 min 0,0 UV-I 287 W/m 12,9 km/h (3 Bft)
06.02.2013 14:14 1,7 C 0,1 C 95 % 0 lf 1000,0 hPa 0,0 l/m 2 min 0,0 UV-I 292 W/m 15,4 km/h (3 Bft)
06.02.2013 14:16 1,7 C 0,1 C 95 % 0 lf 999,9 hPa 0,0 l/m 2 min 0,0 UV-I 258 W/m 12,9 km/h (3 Bft)
06.02.2013 14:18 1,7 C 0,1 C 95 % 0 lf 1000,0 hPa 0,0 l/m 2 min 0,0 UV-I 246 W/m 7,7 km/h (2 Bft)
06.02.2013 14:20 1,7 C 0,1 C 95 % 0 lf 1000,0 hPa 0,0 l/m 2 min 0,0 UV-I 223 W/m 12,9 km/h (3 Bft)
06.02.2013 14:22 1,7 C 0,1 C 95 % 0 lf 1000,0 hPa 0,0 l/m 2 min 0,0 UV-I 237 W/m 7,7 km/h (2 Bft)
06.02.2013 14:24 1,7 C 0,1 C 95 % 0 lf 1000,0 hPa 0,0 l/m 2 min 0,0 UV-I 255 W/m 10,3 km/h (2 Bft)
06.02.2013 14:26 1,8 C 0,1 C 95 % 0 lf 1000,1 hPa 0,0 l/m 2 min 0,0 UV-I 255 W/m 15,4 km/h (3 Bft)
06.02.2013 14:28 1,8 C 0,1 C 95 % 0 lf 1000,1 hPa 0,0 l/m 2 min 0,0 UV-I 253 W/m 10,3 km/h (2 Bft)
06.02.2013 14:30 1,8 C 0,1 C 95 % 0 lf 1000,2 hPa 0,0 l/m 2 min 0,0 UV-I 264 W/m 12,9 km/h (3 Bft)
06.02.2013 14:32 1,8 C 0,1 C 95 % 0 lf 1000,1 hPa 0,0 l/m 2 min 0,0 UV-I 287 W/m 7,7 km/h (2 Bft)
06.02.2013 14:34 1,8 C 0,1 C 95 % 0 lf 1000,2 hPa 0,0 l/m 2 min 0,0 UV-I 211 W/m 10,3 km/h (2 Bft)
06.02.2013 14:36 1,9 C 0,1 C 94 % 0 lf 1000,2 hPa 0,0 l/m 2 min 0,0 UV-I 200 W/m 10,3 km/h (2 Bft)
06.02.2013 14:38 1,9 C 0,1 C 94 % 0 lf 1000,3 hPa 0,0 l/m 0 min 0,0 UV-I 155 W/m 7,7 km/h (2 Bft)
06.02.2013 14:40 1,9 C 0,1 C 94 % 0 lf 1000,3 hPa 0,0 l/m 0 min 0,0 UV-I 130 W/m 10,3 km/h (2 Bft)
06.02.2013 14:42 1,9 C 0,1 C 94 % 0 lf 1000,3 hPa 0,0 l/m 0 min 0,0 UV-I 127 W/m 7,7 km/h (2 Bft)
06.02.2013 14:44 1,9 C 0,1 C 94 % 0 lf 1000,3 hPa 0,0 l/m 0 min 0,0 UV-I 127 W/m 7,7 km/h (2 Bft)
06.02.2013 14:46 1,9 C 0,1 C 94 % 0 lf 1000,3 hPa 0,0 l/m 2 min 0,0 UV-I 179 W/m 5,1 km/h (1 Bft)
06.02.2013 14:48 1,9 C 0,1 C 93 % 0 lf 1000,5 hPa 0,0 l/m 2 min 0,0 UV-I 269 W/m 10,3 km/h (2 Bft)
06.02.2013 14:50 1,9 C 0,1 C 93 % 0 lf 1000,5 hPa 0,0 l/m 2 min 0,0 UV-I 323 W/m 12,9 km/h (3 Bft)
06.02.2013 14:52 1,9 C 0,1 C 93 % 0 lf 1000,6 hPa 0,0 l/m 2 min 0,0 UV-I 322 W/m 10,3 km/h (2 Bft)
06.02.2013 14:54 2,0 C 0,1 C 93 % 0 lf 1000,6 hPa 0,0 l/m 2 min 0,0 UV-I 308 W/m 7,7 km/h (2 Bft)
06.02.2013 14:56 2,1 C 0,7 C 93 % 0 lf 1000,6 hPa 0,0 l/m 2 min 0,0 UV-I 295 W/m 5,1 km/h (1 Bft)
06.02.2013 14:58 2,1 C 0,7 C 93 % 0 lf 1000,6 hPa 0,0 l/m 2 min 0,0 UV-I 292 W/m 2,6 km/h (1 Bft)
06.02.2013 15:00 2,1 C 0,7 C 93 % 0 lf 1000,6 hPa 0,0 l/m 2 min 0,0 UV-I 288 W/m 7,7 km/h (2 Bft)
06.02.2013 15:02 2,2 C 0,7 C 93 % 0 lf 1000,7 hPa 0,0 l/m 2 min 0,0 UV-I 285 W/m 10,3 km/h (2 Bft)
06.02.2013 15:06 2,3 C 0,7 C 93 % 0 lf 1000,7 hPa 0,0 l/m 2 min 0,0 UV-I 274 W/m 7,7 km/h (2 Bft)
06.02.2013 15:08 2,3 C 0,7 C 93 % 0 lf 1000,7 hPa 0,0 l/m 2 min 0,0 UV-I 272 W/m 15,4 km/h (3 Bft)
06.02.2013 15:10 2,3 C 0,7 C 93 % 0 lf 1000,7 hPa 0,0 l/m 2 min 0,0 UV-I 269 W/m 15,4 km/h (3 Bft)
06.02.2013 15:12 2,4 C 0,7 C 93 % 0 lf 1000,7 hPa 0,0 l/m 2 min 0,0 UV-I 265 W/m 7,7 km/h (2 Bft)
06.02.2013 15:14 2,4 C 0,7 C 93 % 0 lf 1000,8 hPa 0,0 l/m 2 min 0,0 UV-I 260 W/m 12,9 km/h (3 Bft)
06.02.2013 15:16 2,4 C 0,7 C 93 % 0 lf 1000,8 hPa 0,0 l/m 2 min 0,0 UV-I 255 W/m 10,3 km/h (2 Bft)
06.02.2013 15:18 2,5 C 0,7 C 92 % 0 lf 1001,0 hPa 0,0 l/m 2 min 0,0 UV-I 251 W/m 10,3 km/h (2 Bft)
06.02.2013 15:20 2,5 C 0,7 C 92 % 0 lf 1001,0 hPa 0,0 l/m 2 min 0,0 UV-I 246 W/m 12,9 km/h (3 Bft)
06.02.2013 15:22 2,6 C 0,7 C 92 % 0 lf 1001,0 hPa 0,0 l/m 2 min 0,0 UV-I 243 W/m 5,1 km/h (1 Bft)
06.02.2013 15:24 2,6 C 0,7 C 92 % 0 lf 1001,0 hPa 0,0 l/m 2 min 0,0 UV-I 239 W/m 12,9 km/h (3 Bft)
06.02.2013 15:26 2,7 C 0,7 C 92 % 0 lf 1001,2 hPa 0,0 l/m 2 min 0,0 UV-I 234 W/m 12,9 km/h (3 Bft)
06.02.2013 15:28 2,7 C 0,7 C 91 % 0 lf 1001,2 hPa 0,0 l/m 2 min 0,0 UV-I 223 W/m 15,4 km/h (3 Bft)
06.02.2013 15:30 2,7 C 0,7 C 91 % 0 lf 1001,2 hPa 0,0 l/m 2 min 0,0 UV-I 225 W/m 15,4 km/h (3 Bft)
06.02.2013 15:32 2,7 C 0,7 C 91 % 0 lf 1001,3 hPa 0,0 l/m 2 min 0,0 UV-I 213 W/m 7,7 km/h (2 Bft)
06.02.2013 15:34 2,7 C 0,7 C 91 % 0 lf 1001,3 hPa 0,0 l/m 2 min 0,0 UV-I 207 W/m 5,1 km/h (1 Bft)
06.02.2013 15:36 2,7 C 0,7 C 91 % 0 lf 1001,4 hPa 0,0 l/m 2 min 0,0 UV-I 206 W/m 0,0 km/h (0 Bft)
06.02.2013 15:38 2,7 C 0,7 C 91 % 0 lf 1001,4 hPa 0,0 l/m 2 min 0,0 UV-I 204 W/m 7,7 km/h (2 Bft)
06.02.2013 15:40 2,8 C 0,7 C 91 % 0 lf 1001,5 hPa 0,0 l/m 2 min 0,0 UV-I 200 W/m 2,6 km/h (1 Bft)
06.02.2013 15:42 2,8 C 0,7 C 90 % 0 lf 1001,5 hPa 0,0 l/m 2 min 0,0 UV-I 202 W/m 5,1 km/h (1 Bft)
06.02.2013 15:44 2,8 C 0,7 C 90 % 0 lf 1001,6 hPa 0,0 l/m 2 min 0,0 UV-I 202 W/m 0,0 km/h (0 Bft)
06.02.2013 15:46 2,8 C 0,7 C 90 % 0 lf 1001,5 hPa 0,0 l/m 2 min 0,0 UV-I 195 W/m 0,0 km/h (0 Bft)
06.02.2013 15:48 2,8 C 0,7 C 90 % 0 lf 1001,5 hPa 0,0 l/m 2 min 0,0 UV-I 188 W/m 0,0 km/h (0 Bft)
06.02.2013 15:50 2,8 C 0,7 C 90 % 0 lf 1001,6 hPa 0,0 l/m 2 min 0,0 UV-I 183 W/m 7,7 km/h (2 Bft)
06.02.2013 15:52 2,8 C 0,7 C 90 % 0 lf 1001,7 hPa 0,0 l/m 2 min 0,0 UV-I 181 W/m 7,7 km/h (2 Bft)
06.02.2013 15:54 2,8 C 0,7 C 90 % 0 lf 1001,6 hPa 0,0 l/m 2 min 0,0 UV-I 146 W/m 0,0 km/h (0 Bft)
06.02.2013 15:56 2,8 C 0,7 C 90 % 0 lf 1001,7 hPa 0,0 l/m 0 min 0,0 UV-I 69 W/m 7,7 km/h (2 Bft)
06.02.2013 15:58 2,8 C 0,7 C 90 % 0 lf 1001,7 hPa 0,0 l/m 0 min 0,0 UV-I 53 W/m 10,3 km/h (2 Bft)
06.02.2013 16:00 2,8 C 0,7 C 90 % 0 lf 1001,7 hPa 0,0 l/m 0 min 0,0 UV-I 54 W/m 5,1 km/h (1 Bft)
06.02.2013 16:02 2,7 C 0,7 C 90 % 0 lf 1001,7 hPa 0,0 l/m 0 min 0,0 UV-I 54 W/m 7,7 km/h (2 Bft)
06.02.2013 16:06 2,7 C 0,7 C 90 % 0 lf 1001,8 hPa 0,0 l/m 0 min 0,0 UV-I 53 W/m 10,3 km/h (2 Bft)
06.02.2013 16:08 2,7 C 0,7 C 90 % 0 lf 1001,8 hPa 0,0 l/m 0 min 0,0 UV-I 51 W/m 10,3 km/h (2 Bft)
06.02.2013 16:10 2,7 C 0,7 C 90 % 0 lf 1001,8 hPa 0,0 l/m 0 min 0,0 UV-I 49 W/m 7,7 km/h (2 Bft)
06.02.2013 16:12 2,7 C 0,7 C 90 % 0 lf 1001,8 hPa 0,0 l/m 0 min 0,0 UV-I 47 W/m 7,7 km/h (2 Bft)
06.02.2013 16:14 2,6 C 0,7 C 90 % 0 lf 1001,8 hPa 0,0 l/m 0 min 0,0 UV-I 44 W/m 2,6 km/h (1 Bft)
06.02.2013 16:16 2,6 C 0,7 C 90 % 0 lf 1001,9 hPa 0,0 l/m 0 min 0,0 UV-I 44 W/m 0,0 km/h (0 Bft)
06.02.2013 16:18 2,6 C 0,7 C 90 % 0 lf 1001,9 hPa 0,0 l/m 0 min 0,0 UV-I 40 W/m 0,0 km/h (0 Bft)
06.02.2013 16:20 2,6 C 0,7 C 90 % 0 lf 1001,8 hPa 0,0 l/m 0 min 0,0 UV-I 40 W/m 0,0 km/h (0 Bft)
06.02.2013 16:22 2,6 C 0,7 C 90 % 0 lf 1001,9 hPa 0,0 l/m 0 min 0,0 UV-I 40 W/m 0,0 km/h (0 Bft)
06.02.2013 16:24 2,6 C 0,7 C 90 % 0 lf 1001,9 hPa 0,0 l/m 0 min 0,0 UV-I 39 W/m 0,0 km/h (0 Bft)
06.02.2013 16:26 2,5 C 0,7 C 90 % 0 lf 1002,0 hPa 0,0 l/m 0 min 0,0 UV-I 40 W/m 0,0 km/h (0 Bft)
06.02.2013 16:28 2,5 C 0,7 C 90 % 0 lf 1002,1 hPa 0,0 l/m 0 min 0,0 UV-I 40 W/m 0,0 km/h (0 Bft)
06.02.2013 16:30 2,5 C 0,1 C 90 % 0 lf 1002,2 hPa 0,0 l/m 0 min 0,0 UV-I 40 W/m 0,0 km/h (0 Bft)
06.02.2013 16:32 2,5 C 0,1 C 90 % 0 lf 1002,2 hPa 0,0 l/m 0 min 0,0 UV-I 39 W/m 0,0 km/h (0 Bft)
06.02.2013 16:34 2,4 C 0,1 C 90 % 0 lf 1002,3 hPa 0,0 l/m 0 min 0,0 UV-I 37 W/m 0,0 km/h (0 Bft)
06.02.2013 16:36 2,4 C 0,1 C 90 % 0 lf 1002,3 hPa 0,0 l/m 0 min 0,0 UV-I 37 W/m 0,0 km/h (0 Bft)
06.02.2013 16:38 2,4 C 0,1 C 90 % 0 lf 1002,3 hPa 0,0 l/m 0 min 0,0 UV-I 37 W/m 0,0 km/h (0 Bft)
06.02.2013 16:40 2,4 C 0,1 C 90 % 0 lf 1002,4 hPa 0,0 l/m 0 min 0,0 UV-I 35 W/m 0,0 km/h (0 Bft)
06.02.2013 16:42 2,4 C 0,1 C 91 % 0 lf 1002,4 hPa 0,0 l/m 0 min 0,0 UV-I 33 W/m 0,0 km/h (0 Bft)
06.02.2013 16:44 2,4 C 0,1 C 91 % 0 lf 1002,3 hPa 0,0 l/m 0 min 0,0 UV-I 32 W/m 0,0 km/h (0 Bft)
06.02.2013 16:46 2,3 C 0,1 C 91 % 0 lf 1002,3 hPa 0,0 l/m 0 min 0,0 UV-I 30 W/m 0,0 km/h (0 Bft)
06.02.2013 16:48 2,3 C 0,1 C 91 % 0 lf 1002,3 hPa 0,0 l/m 0 min 0,0 UV-I 28 W/m 0,0 km/h (0 Bft)
06.02.2013 16:50 2,3 C 0,1 C 91 % 0 lf 1002,3 hPa 0,0 l/m 0 min 0,0 UV-I 26 W/m 0,0 km/h (0 Bft)
06.02.2013 16:52 2,3 C 0,1 C 91 % 0 lf 1002,4 hPa 0,0 l/m 0 min 0,0 UV-I 26 W/m 0,0 km/h (0 Bft)
06.02.2013 16:54 2,2 C 0,1 C 91 % 0 lf 1002,2 hPa 0,0 l/m 0 min 0,0 UV-I 25 W/m 5,1 km/h (1 Bft)
06.02.2013 16:56 2,2 C 0,1 C 91 % 0 lf 1002,3 hPa 0,0 l/m 0 min 0,0 UV-I 25 W/m 5,1 km/h (1 Bft)
06.02.2013 16:58 2,2 C 0,1 C 91 % 0 lf 1002,4 hPa 0,0 l/m 0 min 0,0 UV-I 23 W/m 5,1 km/h (1 Bft)
06.02.2013 17:00 2,2 C 0,1 C 91 % 0 lf 1002,4 hPa 0,0 l/m 0 min 0,0 UV-I 21 W/m 0,0 km/h (0 Bft)
06.02.2013 17:02 2,2 C 0,1 C 91 % 0 lf 1002,3 hPa 0,0 l/m 0 min 0,0 UV-I 21 W/m 0,0 km/h (0 Bft)
06.02.2013 17:06 2,1 C -0,4 C 91 % 0 lf 1002,3 hPa 0,0 l/m 0 min 0,0 UV-I 18 W/m 0,0 km/h (0 Bft)
06.02.2013 17:08 2,1 C -0,4 C 91 % 0 lf 1002,3 hPa 0,0 l/m 0 min 0,0 UV-I 18 W/m 0,0 km/h (0 Bft)
06.02.2013 17:10 2,0 C -0,4 C 91 % 0 lf 1002,2 hPa 0,0 l/m 0 min 0,0 UV-I 16 W/m 0,0 km/h (0 Bft)
06.02.2013 17:12 2,0 C -0,4 C 91 % 0 lf 1002,4 hPa 0,0 l/m 0 min 0,0 UV-I 16 W/m 0,0 km/h (0 Bft)
06.02.2013 17:14 1,9 C -0,4 C 91 % 0 lf 1002,4 hPa 0,0 l/m 0 min 0,0 UV-I 14 W/m 0,0 km/h (0 Bft)
06.02.2013 17:16 1,9 C -0,4 C 91 % 0 lf 1002,4 hPa 0,0 l/m 0 min 0,0 UV-I 14 W/m 0,0 km/h (0 Bft)
06.02.2013 17:18 1,9 C -1,0 C 91 % 0 lf 1002,5 hPa 0,0 l/m 0 min 0,0 UV-I 12 W/m 0,0 km/h (0 Bft)
06.02.2013 17:20 1,8 C -1,0 C 91 % 0 lf 1002,6 hPa 0,0 l/m 0 min 0,0 UV-I 11 W/m 0,0 km/h (0 Bft)
06.02.2013 17:22 1,8 C -1,0 C 91 % 0 lf 1002,6 hPa 0,0 l/m 0 min 0,0 UV-I 11 W/m 0,0 km/h (0 Bft)
06.02.2013 17:24 1,8 C -1,0 C 91 % 0 lf 1002,6 hPa 0,0 l/m 0 min 0,0 UV-I 9 W/m 0,0 km/h (0 Bft)
06.02.2013 17:26 1,8 C -1,0 C 91 % 0 lf 1002,6 hPa 0,0 l/m 0 min 0,0 UV-I 7 W/m 0,0 km/h (0 Bft)
06.02.2013 17:28 1,7 C -1,0 C 91 % 0 lf 1002,6 hPa 0,0 l/m 0 min 0,0 UV-I 7 W/m 0,0 km/h (0 Bft)
06.02.2013 17:30 1,7 C -1,0 C 91 % 0 lf 1002,6 hPa 0,0 l/m 0 min 0,0 UV-I 5 W/m 0,0 km/h (0 Bft)
06.02.2013 17:32 1,6 C -1,0 C 91 % 0 lf 1002,6 hPa 0,0 l/m 0 min 0,0 UV-I 5 W/m 0,0 km/h (0 Bft)
06.02.2013 17:34 1,6 C -1,0 C 91 % 0 lf 1002,6 hPa 0,0 l/m 0 min 0,0 UV-I 0 W/m 0,0 km/h (0 Bft)
06.02.2013 17:36 1,6 C -1,0 C 91 % 0 lf 1002,6 hPa 0,0 l/m 0 min 0,0 UV-I 0 W/m 0,0 km/h (0 Bft)
06.02.2013 17:38 1,5 C -1,0 C 91 % 1 lf 1002,6 hPa 0,0 l/m 0 min 0,0 UV-I 0 W/m 0,0 km/h (0 Bft)
06.02.2013 17:40 1,4 C -1,6 C 91 % 1 lf 1002,6 hPa 0,0 l/m 0 min 0,0 UV-I 0 W/m 0,0 km/h (0 Bft)
06.02.2013 17:42 1,3 C -1,6 C 91 % 1 lf 1002,6 hPa 0,0 l/m 0 min 0,0 UV-I 0 W/m 0,0 km/h (0 Bft)
06.02.2013 17:44 1,3 C -1,6 C 91 % 1 lf 1002,6 hPa 0,0 l/m 0 min 0,0 UV-I 0 W/m 0,0 km/h (0 Bft)
06.02.2013 17:46 1,3 C -1,6 C 91 % 1 lf 1002,6 hPa 0,0 l/m 0 min 0,0 UV-I 0 W/m 0,0 km/h (0 Bft)
06.02.2013 17:48 1,3 C -1,6 C 91 % 1 lf 1002,7 hPa 0,0 l/m 0 min 0,0 UV-I 0 W/m 0,0 km/h (0 Bft)
06.02.2013 17:50 1,3 C -1,6 C 91 % 1 lf 1002,7 hPa 0,0 l/m 0 min 0,0 UV-I 0 W/m 0,0 km/h (0 Bft)
06.02.2013 17:52 1,3 C -1,6 C 91 % 2 lf 1002,7 hPa 0,0 l/m 0 min 0,0 UV-I 0 W/m 0,0 km/h (0 Bft)
06.02.2013 17:54 1,2 C -1,6 C 91 % 2 lf 1002,7 hPa 0,0 l/m 0 min 0,0 UV-I 0 W/m 0,0 km/h (0 Bft)
06.02.2013 17:56 1,2 C -1,6 C 91 % 2 lf 1002,7 hPa 0,0 l/m 0 min 0,0 UV-I 0 W/m 0,0 km/h (0 Bft)
06.02.2013 17:58 1,2 C -1,6 C 91 % 3 lf 1002,7 hPa 0,0 l/m 0 min 0,0 UV-I 0 W/m 0,0 km/h (0 Bft)
06.02.2013 18:00 1,1 C -1,6 C 91 % 3 lf 1002,7 hPa 0,0 l/m 0 min 0,0 UV-I 0 W/m 0,0 km/h (0 Bft)
06.02.2013 18:02 1,1 C -1,6 C 91 % 3 lf 1002,7 hPa 0,0 l/m 0 min 0,0 UV-I 0 W/m 0,0 km/h (0 Bft)
06.02.2013 18:06 0,9 C -1,6 C 91 % 3 lf 1002,8 hPa 0,0 l/m 0 min 0,0 UV-I 0 W/m 0,0 km/h (0 Bft)
06.02.2013 18:08 0,9 C -1,6 C 91 % 4 lf 1002,8 hPa 0,0 l/m 0 min 0,0 UV-I 0 W/m 0,0 km/h (0 Bft)
06.02.2013 18:10 0,9 C -1,6 C 91 % 4 lf 1002,8 hPa 0,0 l/m 0 min 0,0 UV-I 0 W/m 0,0 km/h (0 Bft)
06.02.2013 18:12 0,8 C -1,6 C 92 % 4 lf 1002,9 hPa 0,0 l/m 0 min 0,0 UV-I 0 W/m 2,6 km/h (1 Bft)
06.02.2013 18:14 0,8 C -1,6 C 92 % 4 lf 1003,0 hPa 0,0 l/m 0 min 0,0 UV-I 0 W/m 0,0 km/h (0 Bft)
06.02.2013 18:16 0,8 C -1,6 C 92 % 4 lf 1003,0 hPa 0,0 l/m 0 min 0,0 UV-I 0 W/m 0,0 km/h (0 Bft)
06.02.2013 18:18 0,7 C -1,6 C 92 % 5 lf 1003,0 hPa 0,0 l/m 0 min 0,0 UV-I 0 W/m 0,0 km/h (0 Bft)
06.02.2013 18:20 0,7 C -1,0 C 92 % 5 lf 1003,0 hPa 0,0 l/m 0 min 0,0 UV-I 0 W/m 0,0 km/h (0 Bft)
06.02.2013 18:22 0,7 C -1,6 C 93 % 5 lf 1003,1 hPa 0,0 l/m 0 min 0,0 UV-I 0 W/m 0,0 km/h (0 Bft)
06.02.2013 18:24 0,7 C -1,6 C 93 % 5 lf 1003,1 hPa 0,0 l/m 0 min 0,0 UV-I 0 W/m 0,0 km/h (0 Bft)
06.02.2013 18:26 0,7 C -1,6 C 93 % 6 lf 1003,1 hPa 0,0 l/m 0 min 0,0 UV-I 0 W/m 0,0 km/h (0 Bft)
06.02.2013 18:28 0,7 C -1,6 C 93 % 6 lf 1003,2 hPa 0,0 l/m 0 min 0,0 UV-I 0 W/m 0,0 km/h (0 Bft)
06.02.2013 18:30 0,6 C -1,6 C 93 % 6 lf 1003,2 hPa 0,0 l/m 0 min 0,0 UV-I 0 W/m 2,6 km/h (1 Bft)
06.02.2013 18:32 0,6 C -1,0 C 93 % 6 lf 1003,3 hPa 0,0 l/m 0 min 0,0 UV-I 0 W/m 0,0 km/h (0 Bft)
06.02.2013 18:34 0,6 C -1,0 C 93 % 6 lf 1003,3 hPa 0,0 l/m 0 min 0,0 UV-I 0 W/m 0,0 km/h (0 Bft)
06.02.2013 18:36 0,6 C -1,6 C 93 % 6 lf 1003,3 hPa 0,0 l/m 0 min 0,0 UV-I 0 W/m 0,0 km/h (0 Bft)
06.02.2013 18:38 0,6 C -1,6 C 94 % 7 lf 1003,3 hPa 0,0 l/m 0 min 0,0 UV-I 0 W/m 0,0 km/h (0 Bft)
06.02.2013 18:40 0,5 C -1,6 C 94 % 7 lf 1003,3 hPa 0,0 l/m 0 min 0,0 UV-I 0 W/m 0,0 km/h (0 Bft)
06.02.2013 18:42 0,5 C -1,6 C 94 % 7 lf 1003,3 hPa 0,0 l/m 0 min 0,0 UV-I 0 W/m 0,0 km/h (0 Bft)
06.02.2013 18:44 0,5 C -1,6 C 94 % 7 lf 1003,4 hPa 0,0 l/m 0 min 0,0 UV-I 0 W/m 0,0 km/h (0 Bft)
06.02.2013 18:46 0,4 C -1,6 C 94 % 7 lf 1003,3 hPa 0,0 l/m 0 min 0,0 UV-I 0 W/m 0,0 km/h (0 Bft)
06.02.2013 18:48 0,4 C -1,6 C 94 % 8 lf 1003,4 hPa 0,0 l/m 0 min 0,0 UV-I 0 W/m 0,0 km/h (0 Bft)
06.02.2013 18:50 0,4 C -1,6 C 94 % 8 lf 1003,4 hPa 0,0 l/m 0 min 0,0 UV-I 0 W/m 0,0 km/h (0 Bft)
06.02.2013 18:52 0,4 C -1,6 C 94 % 8 lf 1003,4 hPa 0,0 l/m 0 min 0,0 UV-I 0 W/m 0,0 km/h (0 Bft)
06.02.2013 18:54 0,4 C -1,6 C 94 % 8 lf 1003,4 hPa 0,0 l/m 0 min 0,0 UV-I 0 W/m 2,6 km/h (1 Bft)
06.02.2013 18:56 0,3 C -1,0 C 94 % 8 lf 1003,4 hPa 0,0 l/m 0 min 0,0 UV-I 0 W/m 0,0 km/h (0 Bft)
06.02.2013 18:58 0,3 C -1,6 C 94 % 8 lf 1003,5 hPa 0,0 l/m 0 min 0,0 UV-I 0 W/m 0,0 km/h (0 Bft)
06.02.2013 19:00 0,3 C -1,6 C 94 % 8 lf 1003,5 hPa 0,0 l/m 0 min 0,0 UV-I 0 W/m 0,0 km/h (0 Bft)
06.02.2013 19:02 0,3 C -1,6 C 94 % 8 lf 1003,5 hPa 0,0 l/m 0 min 0,0 UV-I 0 W/m 0,0 km/h (0 Bft)
06.02.2013 19:04 0,3 C -1,6 C 94 % 8 lf 1003,5 hPa 0,0 l/m 0 min 0,0 UV-I 0 W/m 0,0 km/h (0 Bft)
06.02.2013 19:08 0,3 C -1,6 C 94 % 9 lf 1003,6 hPa 0,0 l/m 0 min 0,0 UV-I 0 W/m 0,0 km/h (0 Bft)
06.02.2013 19:10 0,3 C -1,6 C 95 % 9 lf 1003,6 hPa 0,0 l/m 0 min 0,0 UV-I 0 W/m 0,0 km/h (0 Bft)
06.02.2013 19:12 0,3 C -1,6 C 95 % 9 lf 1003,6 hPa 0,0 l/m 0 min 0,0 UV-I 0 W/m 0,0 km/h (0 Bft)
06.02.2013 19:14 0,2 C -1,6 C 95 % 9 lf 1003,6 hPa 0,0 l/m 0 min 0,0 UV-I 0 W/m 0,0 km/h (0 Bft)
06.02.2013 19:16 0,2 C -1,6 C 95 % 9 lf 1003,7 hPa 0,0 l/m 0 min 0,0 UV-I 0 W/m 0,0 km/h (0 Bft)
06.02.2013 19:18 0,2 C -1,6 C 95 % 9 lf 1003,7 hPa 0,0 l/m 0 min 0,0 UV-I 0 W/m 0,0 km/h (0 Bft)
06.02.2013 19:20 0,2 C -1,0 C 95 % 9 lf 1003,6 hPa 0,0 l/m 0 min 0,0 UV-I 0 W/m 2,6 km/h (1 Bft)
06.02.2013 19:22 0,2 C -1,0 C 95 % 9 lf 1003,7 hPa 0,0 l/m 0 min 0,0 UV-I 0 W/m 0,0 km/h (0 Bft)
06.02.2013 19:24 0,2 C -1,0 C 95 % 9 lf 1003,7 hPa 0,0 l/m 0 min 0,0 UV-I 0 W/m 2,6 km/h (1 Bft)
06.02.2013 19:26 0,2 C -1,0 C 95 % 9 lf 1003,8 hPa 0,0 l/m 0 min 0,0 UV-I 0 W/m 5,1 km/h (1 Bft)
06.02.2013 19:28 0,2 C -1,0 C 95 % 9 lf 1003,7 hPa 0,0 l/m 0 min 0,0 UV-I 0 W/m 0,0 km/h (0 Bft)
06.02.2013 19:30 0,2 C -1,0 C 95 % 9 lf 1003,7 hPa 0,0 l/m 0 min 0,0 UV-I 0 W/m 0,0 km/h (0 Bft)
06.02.2013 19:32 0,2 C -1,0 C 95 % 9 lf 1003,7 hPa 0,0 l/m 0 min 0,0 UV-I 0 W/m 0,0 km/h (0 Bft)
06.02.2013 19:34 0,2 C -1,0 C 95 % 9 lf 1003,7 hPa 0,0 l/m 0 min 0,0 UV-I 0 W/m 0,0 km/h (0 Bft)
06.02.2013 19:36 0,2 C -1,0 C 96 % 9 lf 1003,7 hPa 0,0 l/m 0 min 0,0 UV-I 0 W/m 0,0 km/h (0 Bft)
06.02.2013 19:38 0,2 C -1,0 C 96 % 9 lf 1003,8 hPa 0,0 l/m 0 min 0,0 UV-I 0 W/m 0,0 km/h (0 Bft)
06.02.2013 19:40 0,3 C -1,0 C 96 % 9 lf 1003,8 hPa 0,0 l/m 0 min 0,0 UV-I 0 W/m 0,0 km/h (0 Bft)
06.02.2013 19:42 0,3 C -1,0 C 95 % 9 lf 1003,8 hPa 0,0 l/m 0 min 0,0 UV-I 0 W/m 0,0 km/h (0 Bft)
06.02.2013 19:44 0,3 C -1,0 C 96 % 9 lf 1003,9 hPa 0,0 l/m 0 min 0,0 UV-I 0 W/m 0,0 km/h (0 Bft)
06.02.2013 19:46 0,3 C -1,0 C 96 % 9 lf 1003,8 hPa 0,0 l/m 0 min 0,0 UV-I 0 W/m 0,0 km/h (0 Bft)
06.02.2013 19:48 0,3 C -1,0 C 96 % 9 lf 1003,9 hPa 0,0 l/m 0 min 0,0 UV-I 0 W/m 2,6 km/h (1 Bft)
06.02.2013 19:50 0,3 C -1,0 C 96 % 9 lf 1003,9 hPa 0,0 l/m 0 min 0,0 UV-I 0 W/m 0,0 km/h (0 Bft)
06.02.2013 19:52 0,3 C -1,0 C 96 % 9 lf 1003,9 hPa 0,0 l/m 0 min 0,0 UV-I 0 W/m 2,6 km/h (1 Bft)
06.02.2013 19:54 0,3 C -1,0 C 96 % 9 lf 1003,9 hPa 0,0 l/m 0 min 0,0 UV-I 0 W/m 0,0 km/h (0 Bft)
06.02.2013 19:56 0,3 C -1,0 C 96 % 9 lf 1004,0 hPa 0,0 l/m 0 min 0,0 UV-I 0 W/m 2,6 km/h (1 Bft)
06.02.2013 19:58 0,3 C -1,0 C 96 % 9 lf 1004,0 hPa 0,0 l/m 0 min 0,0 UV-I 0 W/m 0,0 km/h (0 Bft)
06.02.2013 20:00 0,3 C -1,0 C 96 % 9 lf 1004,1 hPa 0,0 l/m 0 min 0,0 UV-I 0 W/m 0,0 km/h (0 Bft)
06.02.2013 20:02 0,3 C -1,0 C 96 % 10 lf 1004,1 hPa 0,0 l/m 0 min 0,0 UV-I 0 W/m 0,0 km/h (0 Bft)
06.02.2013 20:05 0,2 C -1,0 C 96 % 10 lf 1004,1 hPa 0,0 l/m 0 min 0,0 UV-I 0 W/m 0,0 km/h (0 Bft)
06.02.2013 20:10 0,2 C -1,0 C 96 % 10 lf 1004,1 hPa 0,0 l/m 0 min 0,0 UV-I 0 W/m 0,0 km/h (0 Bft)
06.02.2013 20:12 0,2 C -1,0 C 96 % 10 lf 1004,1 hPa 0,0 l/m 0 min 0,0 UV-I 0 W/m 0,0 km/h (0 Bft)
06.02.2013 20:14 0,2 C -1,0 C 96 % 10 lf 1004,1 hPa 0,0 l/m 0 min 0,0 UV-I 0 W/m 0,0 km/h (0 Bft)
06.02.2013 20:16 0,2 C -1,0 C 96 % 10 lf 1004,1 hPa 0,0 l/m 0 min 0,0 UV-I 0 W/m 0,0 km/h (0 Bft)
06.02.2013 20:18 0,2 C -1,0 C 96 % 10 lf 1004,2 hPa 0,0 l/m 0 min 0,0 UV-I 0 W/m 0,0 km/h (0 Bft)
06.02.2013 20:20 0,2 C -1,0 C 96 % 10 lf 1004,1 hPa 0,0 l/m 0 min 0,0 UV-I 0 W/m 0,0 km/h (0 Bft)
06.02.2013 20:22 0,2 C -1,0 C 96 % 10 lf 1004,2 hPa 0,0 l/m 0 min 0,0 UV-I 0 W/m 0,0 km/h (0 Bft)
06.02.2013 20:24 0,2 C -1,0 C 96 % 10 lf 1004,2 hPa 0,0 l/m 0 min 0,0 UV-I 0 W/m 0,0 km/h (0 Bft)
06.02.2013 20:26 0,2 C -1,0 C 96 % 9 lf 1004,2 hPa 0,0 l/m 0 min 0,0 UV-I 0 W/m 0,0 km/h (0 Bft)
06.02.2013 20:28 0,3 C -1,0 C 97 % 9 lf 1004,2 hPa 0,0 l/m 0 min 0,0 UV-I 0 W/m 0,0 km/h (0 Bft)
06.02.2013 20:30 0,3 C -1,0 C 97 % 9 lf 1004,2 hPa 0,0 l/m 0 min 0,0 UV-I 0 W/m 0,0 km/h (0 Bft)
06.02.2013 20:32 0,3 C -1,0 C 97 % 9 lf 1004,2 hPa 0,0 l/m 0 min 0,0 UV-I 0 W/m 0,0 km/h (0 Bft)
06.02.2013 20:34 0,3 C -1,0 C 97 % 9 lf 1004,3 hPa 0,0 l/m 0 min 0,0 UV-I 0 W/m 0,0 km/h (0 Bft)
06.02.2013 20:36 0,3 C -1,0 C 97 % 9 lf 1004,3 hPa 0,0 l/m 0 min 0,0 UV-I 0 W/m 0,0 km/h (0 Bft)
06.02.2013 20:38 0,3 C -1,0 C 97 % 9 lf 1004,3 hPa 0,0 l/m 0 min 0,0 UV-I 0 W/m 0,0 km/h (0 Bft)
06.02.2013 20:40 0,3 C -1,0 C 97 % 9 lf 1004,4 hPa 0,0 l/m 0 min 0,0 UV-I 0 W/m 0,0 km/h (0 Bft)
06.02.2013 20:42 0,3 C -0,4 C 97 % 8 lf 1004,4 hPa 0,0 l/m 0 min 0,0 UV-I 0 W/m 5,1 km/h (1 Bft)
06.02.2013 20:44 0,4 C -0,4 C 97 % 8 lf 1004,3 hPa 0,0 l/m 0 min 0,0 UV-I 0 W/m 0,0 km/h (0 Bft)
06.02.2013 20:46 0,4 C -0,4 C 97 % 8 lf 1004,4 hPa 0,0 l/m 0 min 0,0 UV-I 0 W/m 2,6 km/h (1 Bft)
06.02.2013 20:48 0,4 C -0,4 C 97 % 7 lf 1004,3 hPa 0,0 l/m 0 min 0,0 UV-I 0 W/m 2,6 km/h (1 Bft)
06.02.2013 20:50 0,4 C -0,4 C 97 % 7 lf 1004,3 hPa 0,0 l/m 0 min 0,0 UV-I 0 W/m 0,0 km/h (0 Bft)
06.02.2013 20:52 0,5 C -0,4 C 97 % 6 lf 1004,3 hPa 0,0 l/m 0 min 0,0 UV-I 0 W/m 0,0 km/h (0 Bft)
06.02.2013 20:54 0,6 C -0,4 C 97 % 6 lf 1004,4 hPa 0,0 l/m 0 min 0,0 UV-I 0 W/m 5,1 km/h (1 Bft)
06.02.2013 20:56 0,6 C -0,4 C 97 % 5 lf 1004,4 hPa 0,0 l/m 0 min 0,0 UV-I 0 W/m 7,7 km/h (2 Bft)
06.02.2013 20:58 0,7 C -0,4 C 97 % 4 lf 1004,5 hPa 0,0 l/m 0 min 0,0 UV-I 0 W/m 7,7 km/h (2 Bft)
06.02.2013 21:00 0,7 C -0,4 C 97 % 4 lf 1004,5 hPa 0,0 l/m 0 min 0,0 UV-I 0 W/m 5,1 km/h (1 Bft)
06.02.2013 21:02 0,8 C -0,4 C 97 % 3 lf 1004,5 hPa 0,0 l/m 0 min 0,0 UV-I 0 W/m 5,1 km/h (1 Bft)
06.02.2013 21:04 0,8 C -0,4 C 97 % 3 lf 1004,5 hPa 0,0 l/m 0 min 0,0 UV-I 0 W/m 5,1 km/h (1 Bft)
06.02.2013 21:06 0,8 C -0,4 C 97 % 3 lf 1004,6 hPa 0,0 l/m 0 min 0,0 UV-I 0 W/m 0,0 km/h (0 Bft)
06.02.2013 21:08 0,8 C -0,4 C 97 % 2 lf 1004,6 hPa 0,0 l/m 0 min 0,0 UV-I 0 W/m 7,7 km/h (2 Bft)
06.02.2013 21:10 0,9 C -0,4 C 98 % 2 lf 1004,6 hPa 0,0 l/m 0 min 0,0 UV-I 0 W/m 5,1 km/h (1 Bft)
06.02.2013 21:12 0,9 C -0,4 C 98 % 1 lf 1004,7 hPa 0,0 l/m 0 min 0,0 UV-I 0 W/m 5,1 km/h (1 Bft)
06.02.2013 21:14 0,9 C 0,1 C 98 % 1 lf 1004,6 hPa 0,0 l/m 0 min 0,0 UV-I 0 W/m 0,0 km/h (0 Bft)
06.02.2013 21:16 0,9 C -0,4 C 98 % 0 lf 1004,7 hPa 0,0 l/m 0 min 0,0 UV-I 0 W/m 0,0 km/h (0 Bft)
06.02.2013 21:18 1,0 C 0,1 C 98 % 0 lf 1004,7 hPa 0,0 l/m 0 min 0,0 UV-I 0 W/m 0,0 km/h (0 Bft)
06.02.2013 21:20 1,0 C 0,1 C 98 % 0 lf 1004,8 hPa 0,0 l/m 0 min 0,0 UV-I 0 W/m 0,0 km/h (0 Bft)
06.02.2013 21:22 1,0 C 0,1 C 98 % 0 lf 1004,8 hPa 0,0 l/m 0 min 0,0 UV-I 0 W/m 5,1 km/h (1 Bft)
06.02.2013 21:24 1,1 C 0,1 C 98 % 0 lf 1004,8 hPa 0,0 l/m 0 min 0,0 UV-I 0 W/m 5,1 km/h (1 Bft)
06.02.2013 21:26 1,1 C 0,1 C 98 % 0 lf 1004,9 hPa 0,0 l/m 0 min 0,0 UV-I 0 W/m 0,0 km/h (0 Bft)
06.02.2013 21:28 1,1 C 0,1 C 98 % 0 lf 1004,9 hPa 0,0 l/m 0 min 0,0 UV-I 0 W/m 7,7 km/h (2 Bft)
06.02.2013 21:30 1,1 C 0,1 C 98 % 0 lf 1004,9 hPa 0,0 l/m 0 min 0,0 UV-I 0 W/m 0,0 km/h (0 Bft)
06.02.2013 21:32 1,2 C 0,1 C 98 % 0 lf 1004,9 hPa 0,0 l/m 0 min 0,0 UV-I 0 W/m 2,6 km/h (1 Bft)
06.02.2013 21:34 1,2 C 0,1 C 98 % 0 lf 1005,0 hPa 0,0 l/m 0 min 0,0 UV-I 0 W/m 5,1 km/h (1 Bft)
06.02.2013 21:36 1,2 C 0,1 C 98 % 0 lf 1004,9 hPa 0,0 l/m 0 min 0,0 UV-I 0 W/m 5,1 km/h (1 Bft)
06.02.2013 21:38 1,2 C 0,1 C 98 % 0 lf 1005,0 hPa 0,0 l/m 0 min 0,0 UV-I 0 W/m 2,6 km/h (1 Bft)
06.02.2013 21:40 1,2 C 0,1 C 98 % 0 lf 1004,9 hPa 0,0 l/m 0 min 0,0 UV-I 0 W/m 2,6 km/h (1 Bft)
06.02.2013 21:42 1,2 C 0,1 C 98 % 0 lf 1004,9 hPa 0,0 l/m 0 min 0,0 UV-I 0 W/m 0,0 km/h (0 Bft)
06.02.2013 21:44 1,2 C 0,1 C 98 % 0 lf 1005,0 hPa 0,0 l/m 0 min 0,0 UV-I 0 W/m 0,0 km/h (0 Bft)
06.02.2013 21:46 1,2 C 0,1 C 97 % 0 lf 1005,0 hPa 0,0 l/m 0 min 0,0 UV-I 0 W/m 0,0 km/h (0 Bft)
06.02.2013 21:48 1,2 C 0,1 C 97 % 0 lf 1005,0 hPa 0,0 l/m 0 min 0,0 UV-I 0 W/m 5,1 km/h (1 Bft)
06.02.2013 21:50 1,2 C 0,1 C 97 % 0 lf 1005,0 hPa 0,0 l/m 0 min 0,0 UV-I 0 W/m 5,1 km/h (1 Bft)
06.02.2013 21:52 1,2 C 0,1 C 98 % 0 lf 1005,1 hPa 0,0 l/m 0 min 0,0 UV-I 0 W/m 7,7 km/h (2 Bft)
06.02.2013 21:54 1,2 C 0,1 C 98 % 0 lf 1005,1 hPa 0,0 l/m 0 min 0,0 UV-I 0 W/m 0,0 km/h (0 Bft)
06.02.2013 21:56 1,2 C 0,1 C 98 % 0 lf 1005,0 hPa 0,0 l/m 0 min 0,0 UV-I 0 W/m 0,0 km/h (0 Bft)
06.02.2013 21:58 1,2 C 0,1 C 98 % 0 lf 1005,1 hPa 0,0 l/m 0 min 0,0 UV-I 0 W/m 5,1 km/h (1 Bft)
06.02.2013 22:00 1,2 C 0,1 C 98 % 0 lf 1005,1 hPa 0,0 l/m 0 min 0,0 UV-I 0 W/m 7,7 km/h (2 Bft)
06.02.2013 22:02 1,2 C 0,1 C 98 % 0 lf 1005,1 hPa 0,0 l/m 0 min 0,0 UV-I 0 W/m 5,1 km/h (1 Bft)
06.02.2013 22:06 1,3 C 0,1 C 98 % 0 lf 1005,2 hPa 0,0 l/m 0 min 0,0 UV-I 0 W/m 2,6 km/h (1 Bft)
06.02.2013 22:08 1,3 C 0,1 C 98 % 0 lf 1005,2 hPa 0,0 l/m 0 min 0,0 UV-I 0 W/m 2,6 km/h (1 Bft)
06.02.2013 22:10 1,3 C 0,1 C 98 % 0 lf 1005,2 hPa 0,0 l/m 0 min 0,0 UV-I 0 W/m 0,0 km/h (0 Bft)
06.02.2013 22:12 1,3 C 0,1 C 98 % 0 lf 1005,3 hPa 0,0 l/m 0 min 0,0 UV-I 0 W/m 0,0 km/h (0 Bft)
06.02.2013 22:14 1,3 C -0,4 C 98 % 0 lf 1005,3 hPa 0,0 l/m 0 min 0,0 UV-I 0 W/m 0,0 km/h (0 Bft)
06.02.2013 22:16 1,3 C -0,4 C 98 % 0 lf 1005,3 hPa 0,0 l/m 0 min 0,0 UV-I 0 W/m 0,0 km/h (0 Bft)
06.02.2013 22:18 1,3 C -0,4 C 98 % 0 lf 1005,3 hPa 0,0 l/m 0 min 0,0 UV-I 0 W/m 10,3 km/h (2 Bft)
06.02.2013 22:20 1,3 C -0,4 C 98 % 0 lf 1005,3 hPa 0,0 l/m 0 min 0,0 UV-I 0 W/m 2,6 km/h (1 Bft)
06.02.2013 22:22 1,3 C -0,4 C 98 % 0 lf 1005,3 hPa 0,0 l/m 0 min 0,0 UV-I 0 W/m 0,0 km/h (0 Bft)
06.02.2013 22:24 1,2 C -0,4 C 97 % 0 lf 1005,3 hPa 0,0 l/m 0 min 0,0 UV-I 0 W/m 5,1 km/h (1 Bft)
06.02.2013 22:26 1,2 C -0,4 C 97 % 0 lf 1005,4 hPa 0,0 l/m 0 min 0,0 UV-I 0 W/m 2,6 km/h (1 Bft)
06.02.2013 22:28 1,2 C -0,4 C 97 % 0 lf 1005,4 hPa 0,0 l/m 0 min 0,0 UV-I 0 W/m 0,0 km/h (0 Bft)
06.02.2013 22:30 1,2 C -0,4 C 97 % 0 lf 1005,4 hPa 0,0 l/m 0 min 0,0 UV-I 0 W/m 2,6 km/h (1 Bft)
06.02.2013 22:32 1,2 C -0,4 C 97 % 1 lf 1005,4 hPa 0,0 l/m 0 min 0,0 UV-I 0 W/m 0,0 km/h (0 Bft)
06.02.2013 22:34 1,2 C -0,4 C 97 % 1 lf 1005,4 hPa 0,0 l/m 0 min 0,0 UV-I 0 W/m 0,0 km/h (0 Bft)
06.02.2013 22:36 1,1 C -1,0 C 97 % 1 lf 1005,5 hPa 0,0 l/m 0 min 0,0 UV-I 0 W/m 0,0 km/h (0 Bft)
06.02.2013 22:38 1,1 C -1,0 C 97 % 1 lf 1005,5 hPa 0,0 l/m 0 min 0,0 UV-I 0 W/m 0,0 km/h (0 Bft)
06.02.2013 22:40 1,1 C -1,0 C 97 % 2 lf 1005,5 hPa 0,0 l/m 0 min 0,0 UV-I 0 W/m 0,0 km/h (0 Bft)
06.02.2013 22:42 1,1 C -1,0 C 97 % 2 lf 1005,5 hPa 0,0 l/m 0 min 0,0 UV-I 0 W/m 0,0 km/h (0 Bft)
06.02.2013 22:44 1,1 C -1,0 C 97 % 2 lf 1005,5 hPa 0,0 l/m 0 min 0,0 UV-I 0 W/m 0,0 km/h (0 Bft)
06.02.2013 22:46 1,0 C -1,0 C 97 % 3 lf 1005,5 hPa 0,0 l/m 0 min 0,0 UV-I 0 W/m 0,0 km/h (0 Bft)
06.02.2013 22:48 1,0 C -1,0 C 97 % 3 lf 1005,5 hPa 0,0 l/m 0 min 0,0 UV-I 0 W/m 0,0 km/h (0 Bft)
06.02.2013 22:50 0,9 C -1,0 C 97 % 3 lf 1005,5 hPa 0,0 l/m 0 min 0,0 UV-I 0 W/m 0,0 km/h (0 Bft)
06.02.2013 22:52 0,9 C -0,4 C 97 % 3 lf 1005,5 hPa 0,0 l/m 0 min 0,0 UV-I 0 W/m 0,0 km/h (0 Bft)
06.02.2013 22:54 0,9 C -0,4 C 97 % 4 lf 1005,6 hPa 0,0 l/m 0 min 0,0 UV-I 0 W/m 0,0 km/h (0 Bft)
06.02.2013 22:56 0,9 C -0,4 C 97 % 10 lf 1005,7 hPa 0,0 l/m 0 min 0,0 UV-I 0 W/m 0,0 km/h (0 Bft)
06.02.2013 22:58 0,9 C -0,4 C 97 % 15 lf 1005,7 hPa 0,0 l/m 0 min 0,0 UV-I 0 W/m 0,0 km/h (0 Bft)
06.02.2013 23:00 0,9 C -0,4 C 97 % 15 lf 1005,6 hPa 0,0 l/m 0 min 0,0 UV-I 0 W/m 0,0 km/h (0 Bft)
06.02.2013 23:02 0,9 C -0,4 C 97 % 15 lf 1005,7 hPa 0,0 l/m 0 min 0,0 UV-I 0 W/m 0,0 km/h (0 Bft)
06.02.2013 23:06 0,9 C -0,4 C 97 % 15 lf 1005,6 hPa 0,0 l/m 0 min 0,0 UV-I 0 W/m 0,0 km/h (0 Bft)
06.02.2013 23:08 0,9 C -0,4 C 97 % 15 lf 1005,7 hPa 0,0 l/m 0 min 0,0 UV-I 0 W/m 0,0 km/h (0 Bft)
06.02.2013 23:10 0,9 C -0,4 C 97 % 15 lf 1005,6 hPa 0,0 l/m 0 min 0,0 UV-I 0 W/m 0,0 km/h (0 Bft)
06.02.2013 23:12 0,9 C -0,4 C 97 % 15 lf 1005,7 hPa 0,0 l/m 0 min 0,0 UV-I 0 W/m 0,0 km/h (0 Bft)
06.02.2013 23:14 0,9 C -0,4 C 97 % 15 lf 1005,7 hPa 0,0 l/m 0 min 0,0 UV-I 0 W/m 0,0 km/h (0 Bft)
06.02.2013 23:16 0,9 C -0,4 C 97 % 15 lf 1005,7 hPa 0,0 l/m 0 min 0,0 UV-I 0 W/m 0,0 km/h (0 Bft)
06.02.2013 23:18 0,9 C -0,4 C 97 % 15 lf 1005,7 hPa 0,0 l/m 0 min 0,0 UV-I 0 W/m 0,0 km/h (0 Bft)
06.02.2013 23:20 0,8 C -0,4 C 97 % 15 lf 1005,9 hPa 0,0 l/m 0 min 0,0 UV-I 0 W/m 0,0 km/h (0 Bft)
06.02.2013 23:22 0,8 C -0,4 C 97 % 15 lf 1005,8 hPa 0,0 l/m 0 min 0,0 UV-I 0 W/m 0,0 km/h (0 Bft)
06.02.2013 23:24 0,8 C -0,4 C 97 % 15 lf 1005,9 hPa 0,0 l/m 0 min 0,0 UV-I 0 W/m 0,0 km/h (0 Bft)
06.02.2013 23:26 0,8 C -0,4 C 97 % 15 lf 1005,9 hPa 0,0 l/m 0 min 0,0 UV-I 0 W/m 0,0 km/h (0 Bft)
06.02.2013 23:28 0,8 C -0,4 C 97 % 15 lf 1005,9 hPa 0,0 l/m 0 min 0,0 UV-I 0 W/m 0,0 km/h (0 Bft)
06.02.2013 23:30 0,8 C -0,4 C 97 % 15 lf 1005,9 hPa 0,0 l/m 0 min 0,0 UV-I 0 W/m 5,1 km/h (1 Bft)
06.02.2013 23:32 0,8 C -0,4 C 97 % 15 lf 1005,9 hPa 0,0 l/m 0 min 0,0 UV-I 0 W/m 2,6 km/h (1 Bft)
06.02.2013 23:34 0,8 C -0,4 C 97 % 15 lf 1005,9 hPa 0,0 l/m 0 min 0,0 UV-I 0 W/m 0,0 km/h (0 Bft)
06.02.2013 23:36 0,8 C -0,4 C 97 % 15 lf 1005,9 hPa 0,0 l/m 0 min 0,0 UV-I 0 W/m 5,1 km/h (1 Bft)
06.02.2013 23:38 0,9 C -0,4 C 97 % 15 lf 1005,9 hPa 0,0 l/m 0 min 0,0 UV-I 0 W/m 0,0 km/h (0 Bft)
06.02.2013 23:40 0,9 C -0,4 C 97 % 15 lf 1006,0 hPa 0,0 l/m 0 min 0,0 UV-I 0 W/m 0,0 km/h (0 Bft)
06.02.2013 23:42 0,9 C -0,4 C 97 % 15 lf 1006,0 hPa 0,0 l/m 0 min 0,0 UV-I 0 W/m 5,1 km/h (1 Bft)
06.02.2013 23:44 0,9 C -0,4 C 98 % 15 lf 1006,0 hPa 0,0 l/m 0 min 0,0 UV-I 0 W/m 0,0 km/h (0 Bft)
06.02.2013 23:46 0,9 C -0,4 C 98 % 15 lf 1006,0 hPa 0,0 l/m 0 min 0,0 UV-I 0 W/m 5,1 km/h (1 Bft)
06.02.2013 23:48 0,9 C -0,4 C 98 % 15 lf 1006,0 hPa 0,0 l/m 0 min 0,0 UV-I 0 W/m 5,1 km/h (1 Bft)
06.02.2013 23:50 0,9 C -0,4 C 98 % 15 lf 1006,0 hPa 0,0 l/m 0 min 0,0 UV-I 0 W/m 0,0 km/h (0 Bft)
06.02.2013 23:52 0,9 C -0,4 C 98 % 15 lf 1006,1 hPa 0,0 l/m 0 min 0,0 UV-I 0 W/m 7,7 km/h (2 Bft)
06.02.2013 23:54 1,0 C -0,4 C 98 % 15 lf 1006,1 hPa 0,0 l/m 0 min 0,0 UV-I 0 W/m 0,0 km/h (0 Bft)
06.02.2013 23:56 1,0 C -0,4 C 98 % 15 lf 1006,1 hPa 0,0 l/m 0 min 0,0 UV-I 0 W/m 0,0 km/h (0 Bft)
06.02.2013 23:58 1,0 C -0,4 C 98 % 15 lf 1006,1 hPa 0,0 l/m 0 min 0,0 UV-I 0 W/m 0,0 km/h (0 Bft)
_ Min-Zeit 04:14 17:40 15:42 00:00 04:54 - - - - 00:10
Minimum _ 0,2 C -1,6 C 90 % 0 lf 991,8 hPa - - - - 0,0 km/h (0 Bft)
_ Max-Zeit 15:38 00:38 10:36 01:56 23:52 07:06 13:22 00:00 13:38 11:42
Maximum _ 2,8 C 0,7 C 100 % 15 lf 1006,1 hPa 0,4 l/m 2 min 0,0 UV-I 341 W/m 25,7 km/h
NW (4 Bft)
Durchschnitt _ 0,9 C -0,5 C 96 % 8 lf 998,2 hPa #10,2 l/m #1:58 h 0,0 UV-I 103 W/m 6,0 km/h (2 Bft)
© 2013 W. Hausmann